Time,TemperatureF,DewpointF,PressureIn,WindDirection,WindDirectionDegrees,WindSpeedMPH,WindSpeedGustMPH,Humidity,HourlyPrecipIn,Conditions,Clouds,dailyrainin,SoftwareType,DateUTC
2013-03-10 00:00:00,32.2,28.8,30.33,NW,307,0.0,0.0,87,0.00,,,0.00,Wunderground v.1.15,2013-03-10 05:00:00,
2013-03-10 00:01:00,32.1,28.7,30.33,NW,307,0.0,0.0,87,0.00,,,0.00,Wunderground v.1.15,2013-03-10 05:01:00,
2013-03-10 00:03:00,32.1,28.9,30.33,NW,307,0.0,0.0,88,0.00,,,0.00,Wunderground v.1.15,2013-03-10 05:03:00,
2013-03-10 00:05:00,31.9,28.8,30.33,NW,307,0.0,0.0,88,0.00,,,0.00,Wunderground v.1.15,2013-03-10 05:05:00,
2013-03-10 00:08:00,31.9,28.8,30.33,NW,307,0.0,0.0,88,0.00,,,0.00,Wunderground v.1.15,2013-03-10 05:08:00,
2013-03-10 00:10:00,31.9,28.8,30.33,NW,307,0.0,0.0,88,0.00,,,0.00,Wunderground v.1.15,2013-03-10 05:10:00,
2013-03-10 00:11:00,31.9,28.8,30.33,NW,307,0.0,0.0,88,0.00,,,0.00,Wunderground v.1.15,2013-03-10 05:11:00,
2013-03-10 00:12:00,31.8,28.7,30.33,NW,307,0.0,0.0,88,0.00,,,0.00,Wunderground v.1.15,2013-03-10 05:12:00,
2013-03-10 00:14:00,31.8,28.7,30.33,NW,307,0.0,0.0,88,0.00,,,0.00,Wunderground v.1.15,2013-03-10 05:14:00,
2013-03-10 00:17:00,31.8,28.7,30.34,NW,307,0.0,0.0,88,0.00,,,0.00,Wunderground v.1.15,2013-03-10 05:17:00,
2013-03-10 00:18:00,31.8,28.7,30.34,NW,307,0.0,0.0,88,0.00,,,0.00,Wunderground v.1.15,2013-03-10 05:18:00,
2013-03-10 00:21:00,31.8,28.7,30.34,NW,307,0.0,0.0,88,0.00,,,0.00,Wunderground v.1.15,2013-03-10 05:21:00,
2013-03-10 00:22:00,31.8,28.7,30.34,NW,307,0.0,0.0,88,0.00,,,0.00,Wunderground v.1.15,2013-03-10 05:22:00,
2013-03-10 00:23:00,31.8,28.7,30.34,NW,307,0.0,0.0,88,0.00,,,0.00,Wunderground v.1.15,2013-03-10 05:23:00,
2013-03-10 00:27:00,31.6,28.5,30.34,NW,307,0.0,0.0,88,0.00,,,0.00,Wunderground v.1.15,2013-03-10 05:27:00,
2013-03-10 00:28:00,31.6,28.5,30.34,NW,307,0.0,0.0,88,0.00,,,0.00,Wunderground v.1.15,2013-03-10 05:28:00,
2013-03-10 00:29:00,31.6,28.5,30.34,NW,307,0.0,0.0,88,0.00,,,0.00,Wunderground v.1.15,2013-03-10 05:29:00,
2013-03-10 00:32:00,31.6,28.5,30.34,NW,307,0.0,0.0,88,0.00,,,0.00,Wunderground v.1.15,2013-03-10 05:32:00,
2013-03-10 00:34:00,31.5,28.4,30.34,NW,307,0.0,0.0,88,0.00,,,0.00,Wunderground v.1.15,2013-03-10 05:34:00,
2013-03-10 00:35:00,31.5,28.4,30.34,NW,307,0.0,0.0,88,0.00,,,0.00,Wunderground v.1.15,2013-03-10 05:35:00,
2013-03-10 00:39:00,31.3,28.2,30.34,NW,307,0.0,0.0,88,0.00,,,0.00,Wunderground v.1.15,2013-03-10 05:39:00,
2013-03-10 00:40:00,31.3,28.2,30.34,NW,307,0.0,0.0,88,0.00,,,0.00,Wunderground v.1.15,2013-03-10 05:40:00,
2013-03-10 00:41:00,31.3,28.2,30.34,NW,307,0.0,0.0,88,0.00,,,0.00,Wunderground v.1.15,2013-03-10 05:41:00,
2013-03-10 00:46:00,31.2,28.1,30.34,NW,307,0.0,0.0,88,0.00,,,0.00,Wunderground v.1.15,2013-03-10 05:46:00,
2013-03-10 00:47:00,31.2,28.1,30.34,NW,307,0.0,0.0,88,0.00,,,0.00,Wunderground v.1.15,2013-03-10 05:47:00,
2013-03-10 00:48:00,31.2,28.1,30.34,NW,307,0.0,0.0,88,0.00,,,0.00,Wunderground v.1.15,2013-03-10 05:48:00,
2013-03-10 00:52:00,31.0,28.1,30.34,NW,307,0.0,0.0,89,0.00,,,0.00,Wunderground v.1.15,2013-03-10 05:52:00,
2013-03-10 00:53:00,31.0,28.1,30.34,NW,307,0.0,0.0,89,0.00,,,0.00,Wunderground v.1.15,2013-03-10 05:53:00,
2013-03-10 00:54:00,31.0,28.1,30.34,NW,307,0.0,0.0,89,0.00,,,0.00,Wunderground v.1.15,2013-03-10 05:54:00,
2013-03-10 00:55:00,31.0,28.1,30.34,NW,307,0.0,0.0,89,0.00,,,0.00,Wunderground v.1.15,2013-03-10 05:55:00,
2013-03-10 00:59:00,31.0,28.1,30.34,NW,307,0.0,0.0,89,0.00,,,0.00,Wunderground v.1.15,2013-03-10 05:59:00,
2013-03-10 01:00:00,31.0,28.1,30.34,NW,307,0.0,0.0,89,0.00,,,0.00,Wunderground v.1.15,2013-03-10 06:00:00,
2013-03-10 01:02:00,31.0,28.1,30.34,NW,307,0.0,0.0,89,0.00,,,0.00,Wunderground v.1.15,2013-03-10 06:02:00,
2013-03-10 01:05:00,30.9,28.0,30.34,NW,307,0.0,0.0,89,0.00,,,0.00,Wunderground v.1.15,2013-03-10 06:05:00,
2013-03-10 01:08:00,30.9,28.0,30.34,NW,307,0.0,0.0,89,0.00,,,0.00,Wunderground v.1.15,2013-03-10 06:08:00,
2013-03-10 01:09:00,30.9,28.0,30.34,NW,307,0.0,0.0,89,0.00,,,0.00,Wunderground v.1.15,2013-03-10 06:09:00,
2013-03-10 01:10:00,30.7,27.8,30.34,NW,307,0.0,0.0,89,0.00,,,0.00,Wunderground v.1.15,2013-03-10 06:10:00,
2013-03-10 01:13:00,30.6,27.7,30.34,NW,307,0.0,0.0,89,0.00,,,0.00,Wunderground v.1.15,2013-03-10 06:13:00,
2013-03-10 01:15:00,30.6,27.7,30.34,NW,307,0.0,0.0,89,0.00,,,0.00,Wunderground v.1.15,2013-03-10 06:15:00,
2013-03-10 01:20:00,30.4,27.5,30.34,NW,307,0.0,0.0,89,0.00,,,0.00,Wunderground v.1.15,2013-03-10 06:20:00,
2013-03-10 01:21:00,30.4,27.5,30.34,NW,307,0.0,0.0,89,0.00,,,0.00,Wunderground v.1.15,2013-03-10 06:21:00,
2013-03-10 01:25:00,30.3,27.4,30.33,NW,307,0.0,0.0,89,0.00,,,0.00,Wunderground v.1.15,2013-03-10 06:25:00,
2013-03-10 01:27:00,30.3,27.4,30.33,NW,306,0.0,0.0,89,0.00,,,0.00,Wunderground v.1.15,2013-03-10 06:27:00,
2013-03-10 01:30:00,30.3,27.4,30.33,NW,307,0.0,0.0,89,0.00,,,0.00,Wunderground v.1.15,2013-03-10 06:30:00,
2013-03-10 01:33:00,30.3,27.4,30.33,NW,307,0.0,0.0,89,0.00,,,0.00,Wunderground v.1.15,2013-03-10 06:33:00,
2013-03-10 01:38:00,30.3,27.4,30.33,NW,307,0.0,0.0,89,0.00,,,0.00,Wunderground v.1.15,2013-03-10 06:38:00,
2013-03-10 01:39:00,30.3,27.4,30.33,NW,307,0.0,0.0,89,0.00,,,0.00,Wunderground v.1.15,2013-03-10 06:39:00,
2013-03-10 01:41:00,30.3,27.4,30.33,NW,307,0.0,0.0,89,0.00,,,0.00,Wunderground v.1.15,2013-03-10 06:41:00,
2013-03-10 01:43:00,30.1,27.3,30.33,NW,307,0.0,0.0,89,0.00,,,0.00,Wunderground v.1.15,2013-03-10 06:43:00,
2013-03-10 01:44:00,30.1,27.3,30.33,NW,307,0.0,0.0,89,0.00,,,0.00,Wunderground v.1.15,2013-03-10 06:44:00,
2013-03-10 01:46:00,30.1,27.3,30.33,NW,307,0.0,0.0,89,0.00,,,0.00,Wunderground v.1.15,2013-03-10 06:46:00,
2013-03-10 01:48:00,30.1,27.3,30.33,NW,307,0.0,0.0,89,0.00,,,0.00,Wunderground v.1.15,2013-03-10 06:48:00,
2013-03-10 01:50:00,30.0,27.2,30.33,NW,307,0.0,0.0,89,0.00,,,0.00,Wunderground v.1.15,2013-03-10 06:50:00,
2013-03-10 01:53:00,30.0,27.2,30.33,NW,307,0.0,0.0,89,0.00,,,0.00,Wunderground v.1.15,2013-03-10 06:53:00,
2013-03-10 01:54:00,30.0,27.2,30.33,NW,307,0.0,0.0,89,0.00,,,0.00,Wunderground v.1.15,2013-03-10 06:54:00,
2013-03-10 01:56:00,30.0,27.2,30.33,NW,307,0.0,0.0,89,0.00,,,0.00,Wunderground v.1.15,2013-03-10 06:56:00,
2013-03-10 01:59:00,30.0,27.2,30.33,NW,307,0.0,0.0,89,0.00,,,0.00,Wunderground v.1.15,2013-03-10 06:59:00,
2013-03-10 03:00:00,30.0,27.2,30.33,NW,307,0.0,0.0,89,0.00,,,0.00,Wunderground v.1.15,2013-03-10 07:00:00,
2013-03-10 03:01:00,30.0,27.2,30.33,NW,307,0.0,0.0,89,0.00,,,0.00,Wunderground v.1.15,2013-03-10 07:01:00,
2013-03-10 03:04:00,30.0,27.4,30.33,NW,307,0.0,0.0,90,0.00,,,0.00,Wunderground v.1.15,2013-03-10 07:04:00,
2013-03-10 03:06:00,30.0,27.4,30.33,NW,307,0.0,0.0,90,0.00,,,0.00,Wunderground v.1.15,2013-03-10 07:06:00,
2013-03-10 03:08:00,30.0,27.4,30.33,NW,307,0.0,0.0,90,0.00,,,0.00,Wunderground v.1.15,2013-03-10 07:08:00,
2013-03-10 03:09:00,30.0,27.4,30.33,NW,307,0.0,0.0,90,0.00,,,0.00,Wunderground v.1.15,2013-03-10 07:09:00,
2013-03-10 03:14:00,30.0,27.4,30.33,NW,307,0.0,0.0,90,0.00,,,0.00,Wunderground v.1.15,2013-03-10 07:14:00,
2013-03-10 03:15:00,30.0,27.4,30.33,NW,307,0.0,0.0,90,0.00,,,0.00,Wunderground v.1.15,2013-03-10 07:15:00,
2013-03-10 03:17:00,30.0,27.4,30.33,NW,307,0.0,0.0,90,0.00,,,0.00,Wunderground v.1.15,2013-03-10 07:17:00,
2013-03-10 03:21:00,29.8,27.2,30.32,NW,307,0.0,0.0,90,0.00,,,0.00,Wunderground v.1.15,2013-03-10 07:21:00,
2013-03-10 03:22:00,29.8,27.2,30.33,NW,307,0.0,0.0,90,0.00,,,0.00,Wunderground v.1.15,2013-03-10 07:22:00,
2013-03-10 03:23:00,29.8,27.2,30.33,NW,307,0.0,0.0,90,0.00,,,0.00,Wunderground v.1.15,2013-03-10 07:23:00,
2013-03-10 03:24:00,29.7,27.1,30.33,NW,307,0.0,0.0,90,0.00,,,0.00,Wunderground v.1.15,2013-03-10 07:24:00,
2013-03-10 03:28:00,29.7,27.1,30.32,NW,307,0.0,0.0,90,0.00,,,0.00,Wunderground v.1.15,2013-03-10 07:28:00,
2013-03-10 03:29:00,29.7,27.1,30.33,NW,307,0.0,0.0,90,0.00,,,0.00,Wunderground v.1.15,2013-03-10 07:29:00,
2013-03-10 03:30:00,29.8,27.2,30.33,NW,307,0.0,0.0,90,0.00,,,0.00,Wunderground v.1.15,2013-03-10 07:30:00,
2013-03-10 03:33:00,29.8,27.2,30.32,NW,307,0.0,0.0,90,0.00,,,0.00,Wunderground v.1.15,2013-03-10 07:33:00,
2013-03-10 03:34:00,29.8,27.2,30.32,NW,307,0.0,0.0,90,0.00,,,0.00,Wunderground v.1.15,2013-03-10 07:34:00,
2013-03-10 03:39:00,29.7,27.1,30.32,NW,307,0.0,0.0,90,0.00,,,0.00,Wunderground v.1.15,2013-03-10 07:39:00,
2013-03-10 03:40:00,29.7,27.1,30.32,NW,307,0.0,0.0,90,0.00,,,0.00,Wunderground v.1.15,2013-03-10 07:40:00,
2013-03-10 03:41:00,29.7,27.1,30.32,NW,307,0.0,0.0,90,0.00,,,0.00,Wunderground v.1.15,2013-03-10 07:41:00,
2013-03-10 03:42:00,29.7,27.1,30.32,NW,307,0.0,0.0,90,0.00,,,0.00,Wunderground v.1.15,2013-03-10 07:42:00,
2013-03-10 03:46:00,29.7,27.1,30.32,NW,307,0.0,0.0,90,0.00,,,0.00,Wunderground v.1.15,2013-03-10 07:46:00,
2013-03-10 03:50:00,29.7,27.1,30.32,NW,307,0.0,0.0,90,0.00,,,0.00,Wunderground v.1.15,2013-03-10 07:50:00,
2013-03-10 03:51:00,29.7,27.1,30.32,NW,307,0.0,0.0,90,0.00,,,0.00,Wunderground v.1.15,2013-03-10 07:51:00,
2013-03-10 03:52:00,29.7,27.1,30.32,NW,307,0.0,0.0,90,0.00,,,0.00,Wunderground v.1.15,2013-03-10 07:52:00,
2013-03-10 03:55:00,29.7,27.1,30.32,NW,307,0.0,0.0,90,0.00,,,0.00,Wunderground v.1.15,2013-03-10 07:55:00,
2013-03-10 03:56:00,29.7,27.1,30.32,NW,307,0.0,0.0,90,0.00,,,0.00,Wunderground v.1.15,2013-03-10 07:56:00,
2013-03-10 03:58:00,29.7,27.1,30.32,NW,307,0.0,0.0,90,0.00,,,0.00,Wunderground v.1.15,2013-03-10 07:58:00,
2013-03-10 04:01:00,29.5,26.9,30.32,NW,307,0.0,0.0,90,0.00,,,0.00,Wunderground v.1.15,2013-03-10 08:01:00,
2013-03-10 04:02:00,29.5,26.9,30.32,NW,307,0.0,0.0,90,0.00,,,0.00,Wunderground v.1.15,2013-03-10 08:02:00,
2013-03-10 04:03:00,29.5,26.9,30.32,NW,307,0.0,0.0,90,0.00,,,0.00,Wunderground v.1.15,2013-03-10 08:03:00,
2013-03-10 04:06:00,29.7,27.1,30.33,NW,307,0.0,0.0,90,0.00,,,0.00,Wunderground v.1.15,2013-03-10 08:06:00,
2013-03-10 04:08:00,29.7,27.1,30.32,NW,307,0.0,0.0,90,0.00,,,0.00,Wunderground v.1.15,2013-03-10 08:08:00,
2013-03-10 04:09:00,29.7,27.1,30.33,NW,307,0.0,0.0,90,0.00,,,0.00,Wunderground v.1.15,2013-03-10 08:09:00,
2013-03-10 04:13:00,29.5,26.9,30.33,NW,307,0.0,0.0,90,0.00,,,0.00,Wunderground v.1.15,2013-03-10 08:13:00,
2013-03-10 04:14:00,29.5,26.9,30.33,NW,307,0.0,0.0,90,0.00,,,0.00,Wunderground v.1.15,2013-03-10 08:14:00,
2013-03-10 04:15:00,29.5,26.9,30.33,NW,307,0.0,0.0,90,0.00,,,0.00,Wunderground v.1.15,2013-03-10 08:15:00,
2013-03-10 04:16:00,29.5,26.9,30.33,NW,307,0.0,0.0,90,0.00,,,0.00,Wunderground v.1.15,2013-03-10 08:16:00,
2013-03-10 04:20:00,29.5,26.9,30.33,NW,307,0.0,0.0,90,0.00,,,0.00,Wunderground v.1.15,2013-03-10 08:20:00,
2013-03-10 04:22:00,29.4,26.8,30.33,NW,307,0.0,0.0,90,0.00,,,0.00,Wunderground v.1.15,2013-03-10 08:22:00,
2013-03-10 04:23:00,29.4,26.8,30.33,NW,307,0.0,0.0,90,0.00,,,0.00,Wunderground v.1.15,2013-03-10 08:23:00,
2013-03-10 04:26:00,29.4,26.8,30.33,NW,307,0.0,0.0,90,0.00,,,0.00,Wunderground v.1.15,2013-03-10 08:26:00,
2013-03-10 04:27:00,29.4,26.8,30.34,NW,307,0.0,0.0,90,0.00,,,0.00,Wunderground v.1.15,2013-03-10 08:27:00,
2013-03-10 04:31:00,29.4,26.8,30.34,NW,307,0.0,0.0,90,0.00,,,0.00,Wunderground v.1.15,2013-03-10 08:31:00,
2013-03-10 04:32:00,29.4,26.8,30.34,NW,307,0.0,0.0,90,0.00,,,0.00,Wunderground v.1.15,2013-03-10 08:32:00,
2013-03-10 04:34:00,29.4,26.8,30.34,NW,307,0.0,1.0,90,0.00,,,0.00,Wunderground v.1.15,2013-03-10 08:34:00,
2013-03-10 04:35:00,29.4,26.8,30.34,NW,307,0.0,1.0,90,0.00,,,0.00,Wunderground v.1.15,2013-03-10 08:35:00,
2013-03-10 04:38:00,29.4,26.8,30.34,NW,307,0.0,1.0,90,0.00,,,0.00,Wunderground v.1.15,2013-03-10 08:38:00,
2013-03-10 04:42:00,29.4,26.8,30.34,NW,307,0.0,1.0,90,0.00,,,0.00,Wunderground v.1.15,2013-03-10 08:42:00,
2013-03-10 04:43:00,29.4,26.8,30.34,NW,307,0.0,1.0,90,0.00,,,0.00,Wunderground v.1.15,2013-03-10 08:43:00,
2013-03-10 04:44:00,29.4,26.8,30.34,NW,307,0.0,1.0,90,0.00,,,0.00,Wunderground v.1.15,2013-03-10 08:44:00,
2013-03-10 04:46:00,29.4,26.8,30.34,NW,307,0.0,1.0,90,0.00,,,0.00,Wunderground v.1.15,2013-03-10 08:46:00,
2013-03-10 04:49:00,29.4,26.8,30.34,NW,307,0.0,1.0,90,0.00,,,0.00,Wunderground v.1.15,2013-03-10 08:49:00,
2013-03-10 04:51:00,29.5,26.9,30.34,NW,307,0.0,0.0,90,0.00,,,0.00,Wunderground v.1.15,2013-03-10 08:51:00,
2013-03-10 04:53:00,29.5,26.9,30.34,NW,307,0.0,0.0,90,0.00,,,0.00,Wunderground v.1.15,2013-03-10 08:53:00,
2013-03-10 04:56:00,29.5,26.9,30.34,NW,307,0.0,0.0,90,0.00,,,0.00,Wunderground v.1.15,2013-03-10 08:56:00,
2013-03-10 04:58:00,29.5,26.9,30.34,NW,307,0.0,0.0,90,0.00,,,0.00,Wunderground v.1.15,2013-03-10 08:58:00,
2013-03-10 04:59:00,29.5,26.9,30.34,NW,307,0.0,0.0,90,0.00,,,0.00,Wunderground v.1.15,2013-03-10 08:59:00,
2013-03-10 05:00:00,29.4,26.8,30.34,NW,306,0.0,0.0,90,0.00,,,0.00,Wunderground v.1.15,2013-03-10 09:00:00,
2013-03-10 05:04:00,29.4,26.8,30.34,NW,307,0.0,0.0,90,0.00,,,0.00,Wunderground v.1.15,2013-03-10 09:04:00,
2013-03-10 05:05:00,29.4,26.8,30.34,NW,307,0.0,0.0,90,0.00,,,0.00,Wunderground v.1.15,2013-03-10 09:05:00,
2013-03-10 05:06:00,29.4,26.8,30.34,NW,307,0.0,0.0,90,0.00,,,0.00,Wunderground v.1.15,2013-03-10 09:06:00,
2013-03-10 05:08:00,29.4,26.8,30.34,NW,307,0.0,0.0,90,0.00,,,0.00,Wunderground v.1.15,2013-03-10 09:08:00,
2013-03-10 05:11:00,29.4,26.8,30.34,NW,307,0.0,0.0,90,0.00,,,0.00,Wunderground v.1.15,2013-03-10 09:11:00,
2013-03-10 05:12:00,29.4,26.8,30.34,NW,307,0.0,0.0,90,0.00,,,0.00,Wunderground v.1.15,2013-03-10 09:12:00,
2013-03-10 05:13:00,29.4,26.8,30.34,NW,307,0.0,0.0,90,0.00,,,0.00,Wunderground v.1.15,2013-03-10 09:13:00,
2013-03-10 05:16:00,29.4,26.8,30.35,NW,307,0.0,0.0,90,0.00,,,0.00,Wunderground v.1.15,2013-03-10 09:16:00,
2013-03-10 05:17:00,29.4,27.1,30.35,NW,307,0.0,0.0,91,0.00,,,0.00,Wunderground v.1.15,2013-03-10 09:17:00,
2013-03-10 05:19:00,29.4,27.1,30.35,NW,307,0.0,0.0,91,0.00,,,0.00,Wunderground v.1.15,2013-03-10 09:19:00,
2013-03-10 05:21:00,29.4,27.1,30.35,NW,307,0.0,0.0,91,0.00,,,0.00,Wunderground v.1.15,2013-03-10 09:21:00,
2013-03-10 05:22:00,29.4,27.1,30.34,NW,307,0.0,0.0,91,0.00,,,0.00,Wunderground v.1.15,2013-03-10 09:22:00,
2013-03-10 05:25:00,29.4,27.1,30.35,NW,307,0.0,0.0,91,0.00,,,0.00,Wunderground v.1.15,2013-03-10 09:25:00,
2013-03-10 05:27:00,29.4,27.1,30.35,NW,307,0.0,0.0,91,0.00,,,0.00,Wunderground v.1.15,2013-03-10 09:27:00,
2013-03-10 05:29:00,29.4,27.1,30.34,NW,307,0.0,0.0,91,0.00,,,0.00,Wunderground v.1.15,2013-03-10 09:29:00,
2013-03-10 05:30:00,29.4,27.1,30.34,NW,307,0.0,0.0,91,0.00,,,0.00,Wunderground v.1.15,2013-03-10 09:30:00,
2013-03-10 05:34:00,29.3,27.0,30.35,NW,307,0.0,0.0,91,0.00,,,0.00,Wunderground v.1.15,2013-03-10 09:34:00,
2013-03-10 05:35:00,29.3,27.0,30.35,NW,307,0.0,0.0,91,0.00,,,0.00,Wunderground v.1.15,2013-03-10 09:35:00,
2013-03-10 05:38:00,29.3,27.0,30.34,NW,307,0.0,0.0,91,0.00,,,0.00,Wunderground v.1.15,2013-03-10 09:38:00,
2013-03-10 05:39:00,29.3,27.0,30.34,NW,307,0.0,0.0,91,0.00,,,0.00,Wunderground v.1.15,2013-03-10 09:39:00,
2013-03-10 05:41:00,29.3,27.0,30.35,NW,307,0.0,0.0,91,0.00,,,0.00,Wunderground v.1.15,2013-03-10 09:41:00,
2013-03-10 05:42:00,29.3,27.0,30.35,NW,307,0.0,0.0,91,0.00,,,0.00,Wunderground v.1.15,2013-03-10 09:42:00,
2013-03-10 05:46:00,29.1,26.8,30.34,NW,307,0.0,0.0,91,0.00,,,0.00,Wunderground v.1.15,2013-03-10 09:46:00,
2013-03-10 05:49:00,29.1,26.8,30.35,NW,307,0.0,0.0,91,0.00,,,0.00,Wunderground v.1.15,2013-03-10 09:49:00,
2013-03-10 05:51:00,29.1,26.8,30.35,NW,307,0.0,0.0,91,0.00,,,0.00,Wunderground v.1.15,2013-03-10 09:51:00,
2013-03-10 05:52:00,29.0,26.7,30.35,NW,307,0.0,0.0,91,0.00,,,0.00,Wunderground v.1.15,2013-03-10 09:52:00,
2013-03-10 05:54:00,29.0,26.7,30.35,NW,307,0.0,0.0,91,0.00,,,0.00,Wunderground v.1.15,2013-03-10 09:54:00,
2013-03-10 05:57:00,29.0,26.7,30.35,NW,307,0.0,0.0,91,0.00,,,0.00,Wunderground v.1.15,2013-03-10 09:57:00,
2013-03-10 06:00:00,29.0,26.7,30.35,NW,307,0.0,0.0,91,0.00,,,0.00,Wunderground v.1.15,2013-03-10 10:00:00,
2013-03-10 06:03:00,29.0,26.7,30.35,NW,307,0.0,0.0,91,0.00,,,0.00,Wunderground v.1.15,2013-03-10 10:03:00,
2013-03-10 06:06:00,29.0,26.7,30.35,NW,307,0.0,0.0,91,0.00,,,0.00,Wunderground v.1.15,2013-03-10 10:06:00,
2013-03-10 06:07:00,29.0,26.7,30.35,NW,307,0.0,0.0,91,0.00,,,0.00,Wunderground v.1.15,2013-03-10 10:07:00,
2013-03-10 06:08:00,29.0,26.7,30.35,NW,307,0.0,0.0,91,0.00,,,0.00,Wunderground v.1.15,2013-03-10 10:08:00,
2013-03-10 06:12:00,29.0,26.7,30.35,NW,307,0.0,0.0,91,0.00,,,0.00,Wunderground v.1.15,2013-03-10 10:12:00,
2013-03-10 06:13:00,29.0,26.7,30.35,NW,307,0.0,0.0,91,0.00,,,0.00,Wunderground v.1.15,2013-03-10 10:13:00,
2013-03-10 06:17:00,28.8,26.5,30.36,NW,307,0.0,0.0,91,0.00,,,0.00,Wunderground v.1.15,2013-03-10 10:17:00,
2013-03-10 06:18:00,28.8,26.5,30.36,NW,307,0.0,0.0,91,0.00,,,0.00,Wunderground v.1.15,2013-03-10 10:18:00,
2013-03-10 06:23:00,28.7,26.4,30.35,NW,307,0.0,0.0,91,0.00,,,0.00,Wunderground v.1.15,2013-03-10 10:23:00,
2013-03-10 06:24:00,28.8,26.5,30.35,NW,307,0.0,0.0,91,0.00,,,0.00,Wunderground v.1.15,2013-03-10 10:24:00,
2013-03-10 06:25:00,28.8,26.5,30.35,NW,307,0.0,0.0,91,0.00,,,0.00,Wunderground v.1.15,2013-03-10 10:25:00,
2013-03-10 06:27:00,28.8,26.5,30.36,NW,307,0.0,0.0,91,0.00,,,0.00,Wunderground v.1.15,2013-03-10 10:27:00,
2013-03-10 06:29:00,28.8,26.5,30.36,NW,307,0.0,0.0,91,0.00,,,0.00,Wunderground v.1.15,2013-03-10 10:29:00,
2013-03-10 06:30:00,28.8,26.5,30.36,NW,307,0.0,0.0,91,0.00,,,0.00,Wunderground v.1.15,2013-03-10 10:30:00,
2013-03-10 06:33:00,28.8,26.5,30.36,NW,307,0.0,0.0,91,0.00,,,0.00,Wunderground v.1.15,2013-03-10 10:33:00,
2013-03-10 06:35:00,28.8,26.5,30.36,NW,307,0.0,0.0,91,0.00,,,0.00,Wunderground v.1.15,2013-03-10 10:35:00,
2013-03-10 06:37:00,28.8,26.5,30.36,NW,307,0.0,0.0,91,0.00,,,0.00,Wunderground v.1.15,2013-03-10 10:37:00,
2013-03-10 06:39:00,28.8,26.5,30.36,NW,307,0.0,0.0,91,0.00,,,0.00,Wunderground v.1.15,2013-03-10 10:39:00,
2013-03-10 06:40:00,28.8,26.5,30.36,NW,307,0.0,0.0,91,0.00,,,0.00,Wunderground v.1.15,2013-03-10 10:40:00,
2013-03-10 06:43:00,28.7,26.4,30.36,NW,307,0.0,0.0,91,0.00,,,0.00,Wunderground v.1.15,2013-03-10 10:43:00,
2013-03-10 06:45:00,28.7,26.4,30.36,NW,307,0.0,0.0,91,0.00,,,0.00,Wunderground v.1.15,2013-03-10 10:45:00,
2013-03-10 06:48:00,28.7,26.4,30.36,NW,307,0.0,0.0,91,0.00,,,0.00,Wunderground v.1.15,2013-03-10 10:48:00,
2013-03-10 06:50:00,28.7,26.4,30.36,NW,307,0.0,0.0,91,0.00,,,0.00,Wunderground v.1.15,2013-03-10 10:50:00,
2013-03-10 06:51:00,28.7,26.4,30.36,NW,307,0.0,0.0,91,0.00,,,0.00,Wunderground v.1.15,2013-03-10 10:51:00,
2013-03-10 06:53:00,28.7,26.4,30.36,NW,307,0.0,0.0,91,0.00,,,0.00,Wunderground v.1.15,2013-03-10 10:53:00,
2013-03-10 06:58:00,28.7,26.4,30.36,NW,307,0.0,0.0,91,0.00,,,0.00,Wunderground v.1.15,2013-03-10 10:58:00,
2013-03-10 06:59:00,28.7,26.4,30.36,NW,307,0.0,0.0,91,0.00,,,0.00,Wunderground v.1.15,2013-03-10 10:59:00,
2013-03-10 07:00:00,28.7,26.4,30.36,NW,307,0.0,0.0,91,0.00,,,0.00,Wunderground v.1.15,2013-03-10 11:00:00,
2013-03-10 07:01:00,28.7,26.4,30.36,NW,307,0.0,0.0,91,0.00,,,0.00,Wunderground v.1.15,2013-03-10 11:01:00,
2013-03-10 07:04:00,28.7,26.4,30.36,NW,307,0.0,0.0,91,0.00,,,0.00,Wunderground v.1.15,2013-03-10 11:04:00,
2013-03-10 07:07:00,28.7,26.4,30.36,NW,307,0.0,0.0,91,0.00,,,0.00,Wunderground v.1.15,2013-03-10 11:07:00,
2013-03-10 07:08:00,28.7,26.4,30.36,NW,307,0.0,0.0,91,0.00,,,0.00,Wunderground v.1.15,2013-03-10 11:08:00,
2013-03-10 07:09:00,28.8,26.5,30.36,NW,307,0.0,0.0,91,0.00,,,0.00,Wunderground v.1.15,2013-03-10 11:09:00,
2013-03-10 07:13:00,28.8,26.5,30.36,NW,307,0.0,0.0,91,0.00,,,0.00,Wunderground v.1.15,2013-03-10 11:13:00,
2013-03-10 07:14:00,28.8,26.5,30.36,NW,307,0.0,0.0,91,0.00,,,0.00,Wunderground v.1.15,2013-03-10 11:14:00,
2013-03-10 07:18:00,28.8,26.5,30.37,NW,307,0.0,0.0,91,0.00,,,0.00,Wunderground v.1.15,2013-03-10 11:18:00,
2013-03-10 07:19:00,28.8,26.5,30.37,NW,307,0.0,0.0,91,0.00,,,0.00,Wunderground v.1.15,2013-03-10 11:19:00,
2013-03-10 07:23:00,29.0,26.7,30.37,NW,307,0.0,0.0,91,0.00,,,0.00,Wunderground v.1.15,2013-03-10 11:23:00,
2013-03-10 07:25:00,29.0,26.7,30.37,NW,307,0.0,0.0,91,0.00,,,0.00,Wunderground v.1.15,2013-03-10 11:25:00,
2013-03-10 07:26:00,29.0,26.7,30.37,NW,307,0.0,0.0,91,0.00,,,0.00,Wunderground v.1.15,2013-03-10 11:26:00,
2013-03-10 07:30:00,29.1,27.1,30.37,NW,307,0.0,0.0,92,0.00,,,0.00,Wunderground v.1.15,2013-03-10 11:30:00,
2013-03-10 07:31:00,29.3,27.3,30.37,NW,307,0.0,0.0,92,0.00,,,0.00,Wunderground v.1.15,2013-03-10 11:31:00,
2013-03-10 07:32:00,29.3,27.3,30.37,NW,307,0.0,0.0,92,0.00,,,0.00,Wunderground v.1.15,2013-03-10 11:32:00,
2013-03-10 07:36:00,29.5,27.5,30.37,NW,307,0.0,0.0,92,0.00,,,0.00,Wunderground v.1.15,2013-03-10 11:36:00,
2013-03-10 07:37:00,29.5,27.5,30.37,NW,307,0.0,0.0,92,0.00,,,0.00,Wunderground v.1.15,2013-03-10 11:37:00,
2013-03-10 07:39:00,29.7,27.7,30.37,NW,306,0.0,0.0,92,0.00,,,0.00,Wunderground v.1.15,2013-03-10 11:39:00,
2013-03-10 07:44:00,30.0,28.0,30.37,NW,307,0.0,0.0,92,0.00,,,0.00,Wunderground v.1.15,2013-03-10 11:44:00,
2013-03-10 07:45:00,30.1,28.1,30.37,NW,307,0.0,0.0,92,0.00,,,0.00,Wunderground v.1.15,2013-03-10 11:45:00,
2013-03-10 07:46:00,30.1,28.1,30.37,NW,307,0.0,0.0,92,0.00,,,0.00,Wunderground v.1.15,2013-03-10 11:46:00,
2013-03-10 07:49:00,30.3,28.3,30.37,NW,307,0.0,1.0,92,0.00,,,0.00,Wunderground v.1.15,2013-03-10 11:49:00,
2013-03-10 07:52:00,30.7,28.9,30.37,NW,307,0.0,1.0,93,0.00,,,0.00,Wunderground v.1.15,2013-03-10 11:52:00,
2013-03-10 07:53:00,31.0,29.2,30.37,NW,307,0.0,1.0,93,0.00,,,0.00,Wunderground v.1.15,2013-03-10 11:53:00,
2013-03-10 07:58:00,31.8,30.0,30.37,East,86,0.0,3.0,93,0.00,,,0.00,Wunderground v.1.15,2013-03-10 11:58:00,
2013-03-10 07:59:00,32.2,30.4,30.37,East,96,0.0,3.0,93,0.00,,,0.00,Wunderground v.1.15,2013-03-10 11:59:00,
2013-03-10 08:01:00,32.9,31.1,30.37,East,96,0.0,1.0,93,0.00,,,0.00,Wunderground v.1.15,2013-03-10 12:01:00,
2013-03-10 08:03:00,33.5,31.7,30.37,East,96,0.0,4.0,93,0.00,,,0.00,Wunderground v.1.15,2013-03-10 12:03:00,
2013-03-10 08:06:00,34.0,32.2,30.37,East,96,0.0,4.0,93,0.00,,,0.00,Wunderground v.1.15,2013-03-10 12:06:00,
2013-03-10 08:08:00,34.7,32.9,30.37,East,97,0.0,4.0,93,0.00,,,0.00,Wunderground v.1.15,2013-03-10 12:08:00,
2013-03-10 08:09:00,34.9,33.1,30.37,East,97,0.0,4.0,93,0.00,,,0.00,Wunderground v.1.15,2013-03-10 12:09:00,
2013-03-10 08:12:00,35.3,33.5,30.37,East,97,0.0,4.0,93,0.00,,,0.00,Wunderground v.1.15,2013-03-10 12:12:00,
2013-03-10 08:15:00,36.0,34.2,30.38,East,97,0.0,4.0,93,0.00,,,0.00,Wunderground v.1.15,2013-03-10 12:15:00,
2013-03-10 08:18:00,36.5,34.7,30.37,ESE,107,1.0,4.0,93,0.00,,,0.00,Wunderground v.1.15,2013-03-10 12:18:00,
2013-03-10 08:19:00,36.6,34.8,30.37,ESE,107,1.0,4.0,93,0.00,,,0.00,Wunderground v.1.15,2013-03-10 12:19:00,
2013-03-10 08:20:00,36.8,35.0,30.37,ESE,107,1.0,1.0,93,0.00,,,0.00,Wunderground v.1.15,2013-03-10 12:20:00,
2013-03-10 08:21:00,36.9,34.8,30.37,ESE,107,1.0,3.0,92,0.00,,,0.00,Wunderground v.1.15,2013-03-10 12:21:00,
2013-03-10 08:25:00,37.2,35.1,30.38,East,94,2.0,4.0,92,0.00,,,0.00,Wunderground v.1.15,2013-03-10 12:25:00,
2013-03-10 08:26:00,37.2,34.8,30.38,East,94,2.0,4.0,91,0.00,,,0.00,Wunderground v.1.15,2013-03-10 12:26:00,
2013-03-10 08:28:00,37.3,34.9,30.38,East,80,2.0,4.0,91,0.00,,,0.00,Wunderground v.1.15,2013-03-10 12:28:00,
2013-03-10 08:30:00,37.5,35.1,30.38,East,90,2.0,4.0,91,0.00,,,0.00,Wunderground v.1.15,2013-03-10 12:30:00,
2013-03-10 08:31:00,37.5,34.8,30.38,East,90,2.0,4.0,90,0.00,,,0.00,Wunderground v.1.15,2013-03-10 12:31:00,
2013-03-10 08:33:00,37.6,34.9,30.38,ENE,76,2.0,6.0,90,0.00,,,0.00,Wunderground v.1.15,2013-03-10 12:33:00,
2013-03-10 08:36:00,37.6,34.9,30.38,East,95,2.0,6.0,90,0.00,,,0.00,Wunderground v.1.15,2013-03-10 12:36:00,
2013-03-10 08:37:00,37.6,34.9,30.38,ESE,104,2.0,6.0,90,0.00,,,0.00,Wunderground v.1.15,2013-03-10 12:37:00,
2013-03-10 08:38:00,37.8,34.8,30.38,East,98,2.0,6.0,89,0.00,,,0.00,Wunderground v.1.15,2013-03-10 12:38:00,
2013-03-10 08:40:00,37.8,34.8,30.38,East,88,2.0,2.0,89,0.00,,,0.00,Wunderground v.1.15,2013-03-10 12:40:00,
2013-03-10 08:41:00,37.9,34.9,30.38,East,90,2.0,6.0,89,0.00,,,0.00,Wunderground v.1.15,2013-03-10 12:41:00,
2013-03-10 08:42:00,37.9,34.9,30.38,East,90,0.0,6.0,89,0.00,,,0.00,Wunderground v.1.15,2013-03-10 12:42:00,
2013-03-10 08:43:00,37.9,34.7,30.38,East,93,2.0,6.0,88,0.00,,,0.00,Wunderground v.1.15,2013-03-10 12:43:00,
2013-03-10 08:46:00,38.0,34.8,30.38,ESE,102,2.0,6.0,88,0.00,,,0.00,Wunderground v.1.15,2013-03-10 12:46:00,
2013-03-10 08:47:00,38.0,34.8,30.38,East,95,2.0,6.0,88,0.00,,,0.00,Wunderground v.1.15,2013-03-10 12:47:00,
2013-03-10 08:49:00,38.0,34.5,30.38,East,84,3.0,7.0,87,0.00,,,0.00,Wunderground v.1.15,2013-03-10 12:49:00,
2013-03-10 08:51:00,38.0,34.5,30.38,East,86,3.0,4.0,87,0.00,,,0.00,Wunderground v.1.15,2013-03-10 12:51:00,
2013-03-10 08:52:00,38.0,34.5,30.38,ESE,109,3.0,4.0,87,0.00,,,0.00,Wunderground v.1.15,2013-03-10 12:52:00,
2013-03-10 08:54:00,38.2,34.4,30.38,ENE,69,2.0,4.0,86,0.00,,,0.00,Wunderground v.1.15,2013-03-10 12:54:00,
2013-03-10 08:56:00,38.2,34.4,30.38,ESE,107,2.0,6.0,86,0.00,,,0.00,Wunderground v.1.15,2013-03-10 12:56:00,
2013-03-10 08:57:00,38.2,34.4,30.38,East,83,2.0,6.0,86,0.00,,,0.00,Wunderground v.1.15,2013-03-10 12:57:00,
2013-03-10 08:59:00,38.5,34.4,30.38,ESE,105,5.0,9.0,85,0.00,,,0.00,Wunderground v.1.15,2013-03-10 12:59:00,
2013-03-10 09:01:00,38.5,34.4,30.38,ESE,115,4.0,5.0,85,0.00,,,0.00,Wunderground v.1.15,2013-03-10 13:01:00,
2013-03-10 09:02:00,38.6,34.5,30.39,East,90,4.0,5.0,85,0.00,,,0.00,Wunderground v.1.15,2013-03-10 13:02:00,
2013-03-10 09:05:00,38.8,34.4,30.39,ESE,102,6.0,7.0,84,0.00,,,0.00,Wunderground v.1.15,2013-03-10 13:05:00,
2013-03-10 09:06:00,38.8,34.4,30.38,ESE,121,4.0,7.0,84,0.00,,,0.00,Wunderground v.1.15,2013-03-10 13:06:00,
2013-03-10 09:07:00,38.8,34.4,30.38,ESE,122,4.0,7.0,84,0.00,,,0.00,Wunderground v.1.15,2013-03-10 13:07:00,
2013-03-10 09:10:00,38.6,33.9,30.38,ESE,102,1.0,4.0,83,0.00,,,0.00,Wunderground v.1.15,2013-03-10 13:10:00,
2013-03-10 09:11:00,38.6,33.9,30.39,ESE,104,5.0,5.0,83,0.00,,,0.00,Wunderground v.1.15,2013-03-10 13:11:00,
2013-03-10 09:12:00,38.8,34.1,30.38,SE,140,7.0,10.0,83,0.00,,,0.00,Wunderground v.1.15,2013-03-10 13:12:00,
2013-03-10 09:15:00,38.8,34.1,30.38,East,92,2.0,10.0,83,0.00,,,0.00,Wunderground v.1.15,2013-03-10 13:15:00,
2013-03-10 09:17:00,38.8,34.1,30.38,East,89,4.0,10.0,83,0.00,,,0.00,Wunderground v.1.15,2013-03-10 13:17:00,
2013-03-10 09:18:00,38.9,33.9,30.38,East,85,6.0,10.0,82,0.00,,,0.00,Wunderground v.1.15,2013-03-10 13:18:00,
2013-03-10 09:20:00,38.9,33.6,30.38,SE,126,7.0,7.0,81,0.00,,,0.00,Wunderground v.1.15,2013-03-10 13:20:00,
2013-03-10 09:22:00,38.8,33.5,30.38,East,93,3.0,9.0,81,0.00,,,0.00,Wunderground v.1.15,2013-03-10 13:22:00,
2013-03-10 09:23:00,38.8,33.5,30.38,ESE,111,2.0,9.0,81,0.00,,,0.00,Wunderground v.1.15,2013-03-10 13:23:00,
2013-03-10 09:25:00,38.8,33.8,30.38,ESE,113,5.0,9.0,82,0.00,,,0.00,Wunderground v.1.15,2013-03-10 13:25:00,
2013-03-10 09:26:00,38.8,33.5,30.38,East,86,4.0,10.0,81,0.00,,,0.00,Wunderground v.1.15,2013-03-10 13:26:00,
2013-03-10 09:27:00,38.8,33.5,30.38,East,90,3.0,10.0,81,0.00,,,0.00,Wunderground v.1.15,2013-03-10 13:27:00,
2013-03-10 09:29:00,38.8,33.5,30.39,ESE,111,2.0,10.0,81,0.00,,,0.00,Wunderground v.1.15,2013-03-10 13:29:00,
2013-03-10 09:30:00,38.6,33.3,30.39,East,96,5.0,6.0,81,0.00,,,0.00,Wunderground v.1.15,2013-03-10 13:30:00,
2013-03-10 09:31:00,38.8,33.5,30.39,ESE,123,1.0,6.0,81,0.00,,,0.00,Wunderground v.1.15,2013-03-10 13:31:00,
2013-03-10 09:33:00,38.8,33.5,30.39,ESE,110,1.0,6.0,81,0.00,,,0.00,Wunderground v.1.15,2013-03-10 13:33:00,
2013-03-10 09:34:00,38.6,33.3,30.39,East,84,4.0,6.0,81,0.00,,,0.00,Wunderground v.1.15,2013-03-10 13:34:00,
2013-03-10 09:36:00,38.8,33.5,30.39,NE,44,3.0,6.0,81,0.00,,,0.00,Wunderground v.1.15,2013-03-10 13:36:00,
2013-03-10 09:37:00,38.8,33.5,30.39,NE,55,1.0,6.0,81,0.00,,,0.00,Wunderground v.1.15,2013-03-10 13:37:00,
2013-03-10 09:38:00,38.8,33.5,30.39,NE,55,2.0,6.0,81,0.00,,,0.00,Wunderground v.1.15,2013-03-10 13:38:00,
2013-03-10 09:39:00,38.9,33.6,30.39,SE,133,4.0,6.0,81,0.00,,,0.00,Wunderground v.1.15,2013-03-10 13:39:00,
2013-03-10 09:41:00,38.9,33.6,30.39,ESE,115,4.0,6.0,81,0.00,,,0.00,Wunderground v.1.15,2013-03-10 13:41:00,
2013-03-10 09:42:00,38.9,33.6,30.39,ESE,115,1.0,6.0,81,0.00,,,0.00,Wunderground v.1.15,2013-03-10 13:42:00,
2013-03-10 09:43:00,38.9,33.3,30.39,ESE,108,4.0,6.0,80,0.00,,,0.00,Wunderground v.1.15,2013-03-10 13:43:00,
2013-03-10 09:46:00,38.8,33.2,30.39,ENE,61,3.0,6.0,80,0.00,,,0.00,Wunderground v.1.15,2013-03-10 13:46:00,
2013-03-10 09:47:00,38.8,33.2,30.39,ENE,61,2.0,6.0,80,0.00,,,0.00,Wunderground v.1.15,2013-03-10 13:47:00,
2013-03-10 09:48:00,38.8,33.2,30.39,ESE,121,6.0,7.0,80,0.00,,,0.00,Wunderground v.1.15,2013-03-10 13:48:00,
2013-03-10 09:52:00,39.1,33.5,30.39,SE,146,3.0,4.0,80,0.00,,,0.00,Wunderground v.1.15,2013-03-10 13:52:00,
2013-03-10 09:53:00,39.1,33.5,30.39,East,95,4.0,4.0,80,0.00,,,0.00,Wunderground v.1.15,2013-03-10 13:53:00,
2013-03-10 09:57:00,38.8,32.8,30.39,East,85,2.0,12.0,79,0.00,,,0.00,Wunderground v.1.15,2013-03-10 13:57:00,
2013-03-10 09:59:00,38.8,32.8,30.40,East,88,4.0,12.0,79,0.00,,,0.00,Wunderground v.1.15,2013-03-10 13:59:00,
2013-03-10 10:02:00,38.6,32.6,30.40,ESE,120,5.0,10.0,79,0.00,,,0.00,Wunderground v.1.15,2013-03-10 14:02:00,
2013-03-10 10:03:00,38.6,32.6,30.40,ESE,120,2.0,10.0,79,0.00,,,0.00,Wunderground v.1.15,2013-03-10 14:03:00,
2013-03-10 10:04:00,38.8,33.2,30.40,ESE,120,0.0,10.0,80,0.00,,,0.00,Wunderground v.1.15,2013-03-10 14:04:00,
2013-03-10 10:08:00,38.9,32.9,30.40,East,96,2.0,10.0,79,0.00,,,0.00,Wunderground v.1.15,2013-03-10 14:08:00,
2013-03-10 10:09:00,39.1,33.1,30.40,ESE,102,3.0,10.0,79,0.00,,,0.00,Wunderground v.1.15,2013-03-10 14:09:00,
2013-03-10 10:13:00,38.8,32.5,30.40,ESE,104,3.0,9.0,78,0.00,,,0.00,Wunderground v.1.15,2013-03-10 14:13:00,
2013-03-10 10:14:00,38.8,32.8,30.40,ESE,104,1.0,9.0,79,0.00,,,0.00,Wunderground v.1.15,2013-03-10 14:14:00,
2013-03-10 10:18:00,39.1,33.1,30.40,ENE,57,5.0,9.0,79,0.00,,,0.00,Wunderground v.1.15,2013-03-10 14:18:00,
2013-03-10 10:19:00,39.1,32.8,30.40,East,95,4.0,9.0,78,0.00,,,0.00,Wunderground v.1.15,2013-03-10 14:19:00,
2013-03-10 10:23:00,39.2,33.2,30.40,SE,134,3.0,9.0,79,0.00,,,0.00,Wunderground v.1.15,2013-03-10 14:23:00,
2013-03-10 10:24:00,39.1,32.8,30.40,ESE,110,3.0,9.0,78,0.00,,,0.00,Wunderground v.1.15,2013-03-10 14:24:00,
2013-03-10 10:28:00,39.2,32.9,30.40,SE,136,4.0,9.0,78,0.00,,,0.00,Wunderground v.1.15,2013-03-10 14:28:00,
2013-03-10 10:29:00,39.1,32.8,30.40,SE,136,0.0,9.0,78,0.00,,,0.00,Wunderground v.1.15,2013-03-10 14:29:00,
2013-03-10 10:30:00,39.1,32.8,30.40,SE,136,2.0,3.0,78,0.00,,,0.00,Wunderground v.1.15,2013-03-10 14:30:00,
2013-03-10 10:34:00,39.2,32.9,30.40,East,93,2.0,9.0,78,0.00,,,0.00,Wunderground v.1.15,2013-03-10 14:34:00,
2013-03-10 10:35:00,39.1,32.8,30.40,SE,128,2.0,9.0,78,0.00,,,0.00,Wunderground v.1.15,2013-03-10 14:35:00,
2013-03-10 10:39:00,39.3,33.0,30.40,SSE,153,1.0,9.0,78,0.00,,,0.00,Wunderground v.1.15,2013-03-10 14:39:00,
2013-03-10 10:40:00,39.3,33.0,30.40,ENE,68,4.0,4.0,78,0.00,,,0.00,Wunderground v.1.15,2013-03-10 14:40:00,
2013-03-10 10:44:00,39.5,33.2,30.40,ENE,64,2.0,5.0,78,0.00,,,0.00,Wunderground v.1.15,2013-03-10 14:44:00,
2013-03-10 10:45:00,39.5,33.2,30.40,East,96,3.0,5.0,78,0.00,,,0.00,Wunderground v.1.15,2013-03-10 14:45:00,
2013-03-10 10:50:00,39.5,33.2,30.40,NE,46,3.0,3.0,78,0.00,,,0.00,Wunderground v.1.15,2013-03-10 14:50:00,
2013-03-10 10:55:00,39.3,33.0,30.40,East,82,5.0,9.0,78,0.00,,,0.00,Wunderground v.1.15,2013-03-10 14:55:00,
2013-03-10 10:56:00,39.2,32.6,30.40,East,94,2.0,9.0,77,0.00,,,0.00,Wunderground v.1.15,2013-03-10 14:56:00,
2013-03-10 11:00:00,39.2,32.6,30.40,East,80,2.0,4.0,77,0.00,,,0.00,Wunderground v.1.15,2013-03-10 15:00:00,
2013-03-10 11:01:00,39.1,32.5,30.40,East,80,1.0,4.0,77,0.00,,,0.00,Wunderground v.1.15,2013-03-10 15:01:00,
2013-03-10 11:05:00,39.3,33.0,30.40,SE,127,0.0,5.0,78,0.00,,,0.00,Wunderground v.1.15,2013-03-10 15:05:00,
2013-03-10 11:06:00,39.3,33.0,30.40,SE,127,0.0,5.0,78,0.00,,,0.00,Wunderground v.1.15,2013-03-10 15:06:00,
2013-03-10 11:07:00,39.5,33.2,30.40,East,83,3.0,5.0,78,0.00,,,0.00,Wunderground v.1.15,2013-03-10 15:07:00,
2013-03-10 11:11:00,39.2,32.6,30.40,East,92,3.0,5.0,77,0.00,,,0.00,Wunderground v.1.15,2013-03-10 15:11:00,
2013-03-10 11:12:00,39.3,33.0,30.40,ENE,76,0.0,5.0,78,0.00,,,0.00,Wunderground v.1.15,2013-03-10 15:12:00,
2013-03-10 11:16:00,39.3,32.7,30.40,East,94,1.0,7.0,77,0.00,,,0.00,Wunderground v.1.15,2013-03-10 15:16:00,
2013-03-10 11:17:00,39.5,33.2,30.40,East,84,1.0,7.0,78,0.00,,,0.00,Wunderground v.1.15,2013-03-10 15:17:00,
2013-03-10 11:21:00,39.8,32.5,30.40,SE,134,4.0,9.0,75,0.00,,,0.00,Wunderground v.1.15,2013-03-10 15:21:00,
2013-03-10 11:22:00,39.6,32.7,30.40,East,88,4.0,9.0,76,0.00,,,0.00,Wunderground v.1.15,2013-03-10 15:22:00,
2013-03-10 11:26:00,40.1,33.1,30.40,SSE,162,1.0,9.0,76,0.00,,,0.00,Wunderground v.1.15,2013-03-10 15:26:00,
2013-03-10 11:27:00,40.1,33.1,30.40,SSE,162,0.0,9.0,76,0.00,,,0.00,Wunderground v.1.15,2013-03-10 15:27:00,
2013-03-10 11:32:00,40.1,32.8,30.39,ESE,109,7.0,10.0,75,0.00,,,0.00,Wunderground v.1.15,2013-03-10 15:32:00,
2013-03-10 11:37:00,39.9,32.9,30.39,East,84,3.0,10.0,76,0.00,,,0.00,Wunderground v.1.15,2013-03-10 15:37:00,
2013-03-10 11:38:00,39.9,32.9,30.39,NNE,32,5.0,10.0,76,0.00,,,0.00,Wunderground v.1.15,2013-03-10 15:38:00,
2013-03-10 11:39:00,40.1,33.1,30.39,ENE,76,2.0,10.0,76,0.00,,,0.00,Wunderground v.1.15,2013-03-10 15:39:00,
2013-03-10 11:42:00,39.9,32.6,30.39,East,86,2.0,7.0,75,0.00,,,0.00,Wunderground v.1.15,2013-03-10 15:42:00,
2013-03-10 11:43:00,39.9,32.9,30.40,East,91,2.0,7.0,76,0.00,,,0.00,Wunderground v.1.15,2013-03-10 15:43:00,
2013-03-10 11:44:00,40.1,33.1,30.40,SE,126,1.0,7.0,76,0.00,,,0.00,Wunderground v.1.15,2013-03-10 15:44:00,
2013-03-10 11:47:00,40.1,33.1,30.39,East,92,3.0,7.0,76,0.00,,,0.00,Wunderground v.1.15,2013-03-10 15:47:00,
2013-03-10 11:48:00,39.8,32.8,30.40,NE,49,1.0,7.0,76,0.00,,,0.00,Wunderground v.1.15,2013-03-10 15:48:00,
2013-03-10 11:49:00,39.8,32.8,30.40,NE,49,3.0,7.0,76,0.00,,,0.00,Wunderground v.1.15,2013-03-10 15:49:00,
2013-03-10 11:52:00,40.1,33.1,30.40,ESE,105,6.0,6.0,76,0.00,,,0.00,Wunderground v.1.15,2013-03-10 15:52:00,
2013-03-10 11:53:00,39.9,32.9,30.40,ENE,59,3.0,6.0,76,0.00,,,0.00,Wunderground v.1.15,2013-03-10 15:53:00,
2013-03-10 11:55:00,40.1,33.1,30.40,SE,132,5.0,6.0,76,0.00,,,0.00,Wunderground v.1.15,2013-03-10 15:55:00,
2013-03-10 11:57:00,40.1,33.1,30.39,East,79,2.0,6.0,76,0.00,,,0.00,Wunderground v.1.15,2013-03-10 15:57:00,
2013-03-10 11:59:00,40.1,32.8,30.40,SSE,164,2.0,6.0,75,0.00,,,0.00,Wunderground v.1.15,2013-03-10 15:59:00,
2013-03-10 12:00:00,40.1,32.8,30.39,SE,142,5.0,5.0,75,0.00,,,0.00,Wunderground v.1.15,2013-03-10 16:00:00,
2013-03-10 12:03:00,40.2,32.9,30.40,SSE,159,2.0,9.0,75,0.00,,,0.00,Wunderground v.1.15,2013-03-10 16:03:00,
2013-03-10 12:04:00,40.3,33.0,30.39,ESE,115,2.0,9.0,75,0.00,,,0.00,Wunderground v.1.15,2013-03-10 16:04:00,
2013-03-10 12:05:00,40.3,33.0,30.40,East,96,1.0,9.0,75,0.00,,,0.00,Wunderground v.1.15,2013-03-10 16:05:00,
2013-03-10 12:08:00,40.6,33.3,30.40,East,96,2.0,9.0,75,0.00,,,0.00,Wunderground v.1.15,2013-03-10 16:08:00,
2013-03-10 12:09:00,40.8,33.5,30.40,SE,137,3.0,9.0,75,0.00,,,0.00,Wunderground v.1.15,2013-03-10 16:09:00,
2013-03-10 12:11:00,40.8,33.2,30.39,East,100,6.0,9.0,74,0.00,,,0.00,Wunderground v.1.15,2013-03-10 16:11:00,
2013-03-10 12:13:00,40.2,32.2,30.39,East,101,6.0,9.0,73,0.00,,,0.00,Wunderground v.1.15,2013-03-10 16:13:00,
2013-03-10 12:14:00,40.1,32.1,30.39,SE,135,4.0,9.0,73,0.00,,,0.00,Wunderground v.1.15,2013-03-10 16:14:00,
2013-03-10 12:16:00,39.9,32.6,30.39,East,84,2.0,9.0,75,0.00,,,0.00,Wunderground v.1.15,2013-03-10 16:16:00,
2013-03-10 12:19:00,39.9,32.6,30.39,East,90,3.0,9.0,75,0.00,,,0.00,Wunderground v.1.15,2013-03-10 16:19:00,
2013-03-10 12:21:00,39.9,32.6,30.39,NNE,29,3.0,6.0,75,0.00,,,0.00,Wunderground v.1.15,2013-03-10 16:21:00,
2013-03-10 12:24:00,40.2,32.9,30.39,ESE,122,0.0,6.0,75,0.00,,,0.00,Wunderground v.1.15,2013-03-10 16:24:00,
2013-03-10 12:26:00,40.3,33.0,30.39,ENE,65,3.0,6.0,75,0.00,,,0.00,Wunderground v.1.15,2013-03-10 16:26:00,
2013-03-10 12:27:00,40.3,33.0,30.39,East,96,4.0,6.0,75,0.00,,,0.00,Wunderground v.1.15,2013-03-10 16:27:00,
2013-03-10 12:29:00,40.2,32.9,30.39,SE,140,1.0,6.0,75,0.00,,,0.00,Wunderground v.1.15,2013-03-10 16:29:00,
2013-03-10 12:30:00,40.3,33.0,30.39,SE,139,2.0,3.0,75,0.00,,,0.00,Wunderground v.1.15,2013-03-10 16:30:00,
2013-03-10 12:32:00,40.5,33.2,30.39,SSE,153,2.0,4.0,75,0.00,,,0.00,Wunderground v.1.15,2013-03-10 16:32:00,
2013-03-10 12:34:00,40.5,32.9,30.39,SE,130,5.0,6.0,74,0.00,,,0.00,Wunderground v.1.15,2013-03-10 16:34:00,
2013-03-10 12:35:00,40.3,32.7,30.39,East,80,8.0,9.0,74,0.00,,,0.00,Wunderground v.1.15,2013-03-10 16:35:00,
2013-03-10 12:37:00,40.3,33.0,30.39,East,101,5.0,9.0,75,0.00,,,0.00,Wunderground v.1.15,2013-03-10 16:37:00,
2013-03-10 12:38:00,40.3,32.7,30.39,SE,134,4.0,9.0,74,0.00,,,0.00,Wunderground v.1.15,2013-03-10 16:38:00,
2013-03-10 12:39:00,40.2,32.6,30.40,East,94,3.0,9.0,74,0.00,,,0.00,Wunderground v.1.15,2013-03-10 16:39:00,
2013-03-10 12:40:00,39.9,31.9,30.39,SE,128,3.0,4.0,73,0.00,,,0.00,Wunderground v.1.15,2013-03-10 16:40:00,
2013-03-10 12:42:00,39.8,32.5,30.39,East,90,6.0,7.0,75,0.00,,,0.00,Wunderground v.1.15,2013-03-10 16:42:00,
2013-03-10 12:43:00,39.8,32.5,30.40,East,94,0.0,7.0,75,0.00,,,0.00,Wunderground v.1.15,2013-03-10 16:43:00,
2013-03-10 12:44:00,39.6,32.3,30.39,SSE,159,3.0,7.0,75,0.00,,,0.00,Wunderground v.1.15,2013-03-10 16:44:00,
2013-03-10 12:45:00,39.8,32.5,30.39,SSE,153,6.0,7.0,75,0.00,,,0.00,Wunderground v.1.15,2013-03-10 16:45:00,
2013-03-10 12:48:00,39.8,32.8,30.39,NE,56,2.0,9.0,76,0.00,,,0.00,Wunderground v.1.15,2013-03-10 16:48:00,
2013-03-10 12:50:00,39.6,32.7,30.39,East,81,0.0,3.0,76,0.00,,,0.00,Wunderground v.1.15,2013-03-10 16:50:00,
2013-03-10 12:51:00,39.8,32.8,30.39,NNE,22,0.0,5.0,76,0.00,,,0.00,Wunderground v.1.15,2013-03-10 16:51:00,
2013-03-10 12:53:00,39.9,32.9,30.39,East,90,3.0,6.0,76,0.00,,,0.00,Wunderground v.1.15,2013-03-10 16:53:00,
2013-03-10 12:55:00,39.8,32.5,30.39,ENE,77,2.0,6.0,75,0.00,,,0.00,Wunderground v.1.15,2013-03-10 16:55:00,
2013-03-10 12:57:00,39.9,32.9,30.39,SE,142,1.0,8.0,76,0.00,,,0.00,Wunderground v.1.15,2013-03-10 16:57:00,
2013-03-10 12:59:00,40.1,33.1,30.39,SSE,151,1.0,8.0,76,0.00,,,0.00,Wunderground v.1.15,2013-03-10 16:59:00,
2013-03-10 13:00:00,40.2,32.9,30.39,East,90,5.0,6.0,75,0.00,,,0.00,Wunderground v.1.15,2013-03-10 17:00:00,
2013-03-10 13:03:00,40.1,32.8,30.39,NE,42,1.0,6.0,75,0.00,,,0.00,Wunderground v.1.15,2013-03-10 17:03:00,
2013-03-10 13:04:00,40.1,33.1,30.38,East,92,0.0,6.0,76,0.00,,,0.00,Wunderground v.1.15,2013-03-10 17:04:00,
2013-03-10 13:05:00,40.3,33.3,30.38,ESE,119,2.0,6.0,76,0.00,,,0.00,Wunderground v.1.15,2013-03-10 17:05:00,
2013-03-10 13:08:00,40.3,33.3,30.39,ENE,77,3.0,6.0,76,0.00,,,0.00,Wunderground v.1.15,2013-03-10 17:08:00,
2013-03-10 13:09:00,40.5,33.5,30.39,East,88,0.0,6.0,76,0.00,,,0.00,Wunderground v.1.15,2013-03-10 17:09:00,
2013-03-10 13:10:00,40.6,33.6,30.39,ESE,122,3.0,3.0,76,0.00,,,0.00,Wunderground v.1.15,2013-03-10 17:10:00,
2013-03-10 13:11:00,40.6,33.6,30.39,ESE,121,5.0,5.0,76,0.00,,,0.00,Wunderground v.1.15,2013-03-10 17:11:00,
2013-03-10 13:13:00,40.5,32.9,30.39,ENE,74,2.0,6.0,74,0.00,,,0.00,Wunderground v.1.15,2013-03-10 17:13:00,
2013-03-10 13:14:00,40.3,32.7,30.38,ESE,115,4.0,6.0,74,0.00,,,0.00,Wunderground v.1.15,2013-03-10 17:14:00,
2013-03-10 13:16:00,40.2,32.6,30.38,ESE,109,5.0,6.0,74,0.00,,,0.00,Wunderground v.1.15,2013-03-10 17:16:00,
2013-03-10 13:19:00,39.9,32.6,30.38,East,95,10.0,10.0,75,0.00,,,0.00,Wunderground v.1.15,2013-03-10 17:19:00,
2013-03-10 13:20:00,39.8,32.5,30.39,ESE,123,2.0,3.0,75,0.00,,,0.00,Wunderground v.1.15,2013-03-10 17:20:00,
2013-03-10 13:21:00,39.8,32.5,30.38,ENE,77,3.0,7.0,75,0.00,,,0.00,Wunderground v.1.15,2013-03-10 17:21:00,
2013-03-10 13:24:00,39.5,32.2,30.38,East,96,3.0,7.0,75,0.00,,,0.00,Wunderground v.1.15,2013-03-10 17:24:00,
2013-03-10 13:25:00,39.5,32.2,30.39,East,96,1.0,7.0,75,0.00,,,0.00,Wunderground v.1.15,2013-03-10 17:25:00,
2013-03-10 13:26:00,39.8,32.8,30.39,ESE,106,3.0,7.0,76,0.00,,,0.00,Wunderground v.1.15,2013-03-10 17:26:00,
2013-03-10 13:29:00,40.1,33.1,30.39,ESE,120,3.0,7.0,76,0.00,,,0.00,Wunderground v.1.15,2013-03-10 17:29:00,
2013-03-10 13:30:00,40.2,33.2,30.39,SSE,155,0.0,3.0,76,0.00,,,0.00,Wunderground v.1.15,2013-03-10 17:30:00,
2013-03-10 13:32:00,40.6,33.6,30.38,SSE,154,0.0,3.0,76,0.00,,,0.00,Wunderground v.1.15,2013-03-10 17:32:00,
2013-03-10 13:34:00,40.5,32.5,30.38,East,90,0.0,6.0,73,0.00,,,0.00,Wunderground v.1.15,2013-03-10 17:34:00,
2013-03-10 13:35:00,40.5,32.5,30.38,East,90,2.0,6.0,73,0.00,,,0.00,Wunderground v.1.15,2013-03-10 17:35:00,
2013-03-10 13:37:00,40.8,33.5,30.38,South,169,2.0,6.0,75,0.00,,,0.00,Wunderground v.1.15,2013-03-10 17:37:00,
2013-03-10 13:40:00,40.9,32.9,30.38,East,86,5.0,9.0,73,0.00,,,0.00,Wunderground v.1.15,2013-03-10 17:40:00,
2013-03-10 13:41:00,40.8,32.8,30.38,SE,137,3.0,9.0,73,0.00,,,0.00,Wunderground v.1.15,2013-03-10 17:41:00,
2013-03-10 13:42:00,40.8,33.2,30.38,SSE,150,1.0,9.0,74,0.00,,,0.00,Wunderground v.1.15,2013-03-10 17:42:00,
2013-03-10 13:43:00,40.8,33.2,30.38,SSE,150,1.0,9.0,74,0.00,,,0.00,Wunderground v.1.15,2013-03-10 17:43:00,
2013-03-10 13:45:00,41.1,33.4,30.37,SSE,150,0.0,9.0,74,0.00,,,0.00,Wunderground v.1.15,2013-03-10 17:45:00,
2013-03-10 13:46:00,41.1,33.4,30.37,SSE,161,0.0,9.0,74,0.00,,,0.00,Wunderground v.1.15,2013-03-10 17:46:00,
2013-03-10 13:47:00,41.1,33.1,30.37,East,94,3.0,9.0,73,0.00,,,0.00,Wunderground v.1.15,2013-03-10 17:47:00,
2013-03-10 13:49:00,40.9,32.9,30.37,East,96,5.0,9.0,73,0.00,,,0.00,Wunderground v.1.15,2013-03-10 17:49:00,
2013-03-10 13:50:00,40.8,32.8,30.37,SE,124,3.0,3.0,73,0.00,,,0.00,Wunderground v.1.15,2013-03-10 17:50:00,
2013-03-10 13:52:00,41.1,33.8,30.37,SE,138,2.0,4.0,75,0.00,,,0.00,Wunderground v.1.15,2013-03-10 17:52:00,
2013-03-10 13:54:00,41.2,33.2,30.37,East,101,6.0,9.0,73,0.00,,,0.00,Wunderground v.1.15,2013-03-10 17:54:00,
2013-03-10 13:55:00,40.8,32.8,30.37,East,89,2.0,9.0,73,0.00,,,0.00,Wunderground v.1.15,2013-03-10 17:55:00,
2013-03-10 13:57:00,40.6,32.6,30.38,SE,130,3.0,9.0,73,0.00,,,0.00,Wunderground v.1.15,2013-03-10 17:57:00,
2013-03-10 13:59:00,40.6,33.0,30.37,South,173,2.0,9.0,74,0.00,,,0.00,Wunderground v.1.15,2013-03-10 17:59:00,
2013-03-10 14:00:00,40.8,33.2,30.37,SSE,147,2.0,4.0,74,0.00,,,0.00,Wunderground v.1.15,2013-03-10 18:00:00,
2013-03-10 14:02:00,40.5,32.5,30.37,East,80,1.0,6.0,73,0.00,,,0.00,Wunderground v.1.15,2013-03-10 18:02:00,
2013-03-10 14:03:00,40.5,32.5,30.37,SE,132,3.0,6.0,73,0.00,,,0.00,Wunderground v.1.15,2013-03-10 18:03:00,
2013-03-10 14:05:00,40.6,33.0,30.37,SSW,201,1.0,6.0,74,0.00,,,0.00,Wunderground v.1.15,2013-03-10 18:05:00,
2013-03-10 14:09:00,41.2,33.2,30.37,ESE,115,4.0,6.0,73,0.00,,,0.00,Wunderground v.1.15,2013-03-10 18:09:00,
2013-03-10 14:10:00,41.1,32.8,30.37,East,86,2.0,3.0,72,0.00,,,0.00,Wunderground v.1.15,2013-03-10 18:10:00,
2013-03-10 14:11:00,40.9,32.6,30.37,SE,128,2.0,3.0,72,0.00,,,0.00,Wunderground v.1.15,2013-03-10 18:11:00,
2013-03-10 14:14:00,40.8,32.8,30.37,SSE,153,2.0,4.0,73,0.00,,,0.00,Wunderground v.1.15,2013-03-10 18:14:00,
2013-03-10 14:15:00,40.8,32.8,30.37,SSE,154,0.0,4.0,73,0.00,,,0.00,Wunderground v.1.15,2013-03-10 18:15:00,
2013-03-10 14:16:00,40.8,32.8,30.37,SE,140,4.0,7.0,73,0.00,,,0.00,Wunderground v.1.15,2013-03-10 18:16:00,
2013-03-10 14:19:00,41.1,33.1,30.37,SSE,160,2.0,7.0,73,0.00,,,0.00,Wunderground v.1.15,2013-03-10 18:19:00,
2013-03-10 14:20:00,41.2,33.2,30.37,SE,130,5.0,5.0,73,0.00,,,0.00,Wunderground v.1.15,2013-03-10 18:20:00,
2013-03-10 14:22:00,40.9,32.6,30.37,East,91,0.0,5.0,72,0.00,,,0.00,Wunderground v.1.15,2013-03-10 18:22:00,
2013-03-10 14:24:00,41.1,33.1,30.36,SSE,150,3.0,5.0,73,0.00,,,0.00,Wunderground v.1.15,2013-03-10 18:24:00,
2013-03-10 14:25:00,41.1,33.1,30.37,SE,126,5.0,7.0,73,0.00,,,0.00,Wunderground v.1.15,2013-03-10 18:25:00,
2013-03-10 14:26:00,41.1,33.1,30.36,East,99,5.0,7.0,73,0.00,,,0.00,Wunderground v.1.15,2013-03-10 18:26:00,
2013-03-10 14:27:00,41.1,32.8,30.36,East,99,2.0,7.0,72,0.00,,,0.00,Wunderground v.1.15,2013-03-10 18:27:00,
2013-03-10 14:29:00,41.1,33.1,30.36,SSE,148,3.0,7.0,73,0.00,,,0.00,Wunderground v.1.15,2013-03-10 18:29:00,
2013-03-10 14:30:00,41.2,33.2,30.36,South,171,0.0,2.0,73,0.00,,,0.00,Wunderground v.1.15,2013-03-10 18:30:00,
2013-03-10 14:31:00,41.5,33.5,30.36,SSE,161,1.0,4.0,73,0.00,,,0.00,Wunderground v.1.15,2013-03-10 18:31:00,
2013-03-10 14:33:00,41.8,33.8,30.36,ENE,74,3.0,5.0,73,0.00,,,0.00,Wunderground v.1.15,2013-03-10 18:33:00,
2013-03-10 14:34:00,41.6,33.2,30.36,ESE,121,4.0,5.0,72,0.00,,,0.00,Wunderground v.1.15,2013-03-10 18:34:00,
2013-03-10 14:35:00,41.6,33.2,30.36,ESE,115,2.0,5.0,72,0.00,,,0.00,Wunderground v.1.15,2013-03-10 18:35:00,
2013-03-10 14:36:00,41.8,33.4,30.36,ENE,73,2.0,5.0,72,0.00,,,0.00,Wunderground v.1.15,2013-03-10 18:36:00,
2013-03-10 14:38:00,41.8,33.4,30.36,ESE,108,4.0,7.0,72,0.00,,,0.00,Wunderground v.1.15,2013-03-10 18:38:00,
2013-03-10 14:39:00,41.6,32.9,30.36,SE,137,4.0,4.0,71,0.00,,,0.00,Wunderground v.1.15,2013-03-10 18:39:00,
2013-03-10 14:41:00,41.3,32.6,30.36,SE,135,2.0,6.0,71,0.00,,,0.00,Wunderground v.1.15,2013-03-10 18:41:00,
2013-03-10 14:42:00,41.2,32.9,30.36,SE,130,6.0,6.0,72,0.00,,,0.00,Wunderground v.1.15,2013-03-10 18:42:00,
2013-03-10 14:43:00,41.2,32.5,30.36,SSE,159,3.0,6.0,71,0.00,,,0.00,Wunderground v.1.15,2013-03-10 18:43:00,
2013-03-10 14:44:00,41.5,33.5,30.36,SSE,168,3.0,6.0,73,0.00,,,0.00,Wunderground v.1.15,2013-03-10 18:44:00,
2013-03-10 14:46:00,41.9,33.9,30.36,SSE,168,0.0,6.0,73,0.00,,,0.00,Wunderground v.1.15,2013-03-10 18:46:00,
2013-03-10 14:47:00,42.2,34.2,30.36,SSE,168,0.0,6.0,73,0.00,,,0.00,Wunderground v.1.15,2013-03-10 18:47:00,
2013-03-10 14:48:00,42.1,33.0,30.35,East,80,4.0,7.0,70,0.00,,,0.00,Wunderground v.1.15,2013-03-10 18:48:00,
2013-03-10 14:49:00,41.9,32.8,30.35,ENE,74,1.0,7.0,70,0.00,,,0.00,Wunderground v.1.15,2013-03-10 18:49:00,
2013-03-10 14:51:00,41.9,32.8,30.36,East,87,4.0,4.0,70,0.00,,,0.00,Wunderground v.1.15,2013-03-10 18:51:00,
2013-03-10 14:52:00,41.8,32.7,30.36,East,85,3.0,5.0,70,0.00,,,0.00,Wunderground v.1.15,2013-03-10 18:52:00,
2013-03-10 14:54:00,41.5,32.8,30.35,ENE,74,5.0,7.0,71,0.00,,,0.00,Wunderground v.1.15,2013-03-10 18:54:00,
2013-03-10 14:55:00,41.3,32.6,30.35,East,90,6.0,7.0,71,0.00,,,0.00,Wunderground v.1.15,2013-03-10 18:55:00,
2013-03-10 14:56:00,41.1,32.4,30.35,ESE,115,2.0,7.0,71,0.00,,,0.00,Wunderground v.1.15,2013-03-10 18:56:00,
2013-03-10 14:57:00,40.8,32.5,30.36,ESE,115,1.0,7.0,72,0.00,,,0.00,Wunderground v.1.15,2013-03-10 18:57:00,
2013-03-10 14:59:00,40.6,32.3,30.35,ENE,76,3.0,9.0,72,0.00,,,0.00,Wunderground v.1.15,2013-03-10 18:59:00,
2013-03-10 15:00:00,40.6,32.6,30.36,SE,128,7.0,7.0,73,0.00,,,0.00,Wunderground v.1.15,2013-03-10 19:00:00,
2013-03-10 15:01:00,40.9,33.2,30.36,SE,134,5.0,7.0,74,0.00,,,0.00,Wunderground v.1.15,2013-03-10 19:01:00,
2013-03-10 15:04:00,41.2,33.2,30.36,East,99,3.0,7.0,73,0.00,,,0.00,Wunderground v.1.15,2013-03-10 19:04:00,
2013-03-10 15:06:00,40.6,31.9,30.36,ESE,117,3.0,10.0,71,0.00,,,0.00,Wunderground v.1.15,2013-03-10 19:06:00,
2013-03-10 15:09:00,40.3,32.3,30.36,ESE,110,1.0,10.0,73,0.00,,,0.00,Wunderground v.1.15,2013-03-10 19:09:00,
2013-03-10 15:11:00,40.5,32.9,30.36,SE,130,0.0,3.0,74,0.00,,,0.00,Wunderground v.1.15,2013-03-10 19:11:00,
2013-03-10 15:12:00,40.6,32.6,30.36,SE,130,1.0,3.0,73,0.00,,,0.00,Wunderground v.1.15,2013-03-10 19:12:00,
2013-03-10 15:14:00,40.9,33.2,30.36,SE,132,0.0,3.0,74,0.00,,,0.00,Wunderground v.1.15,2013-03-10 19:14:00,
2013-03-10 15:15:00,41.1,33.4,30.36,SSE,159,3.0,5.0,74,0.00,,,0.00,Wunderground v.1.15,2013-03-10 19:15:00,
2013-03-10 15:16:00,41.2,33.2,30.36,SSE,159,0.0,5.0,73,0.00,,,0.00,Wunderground v.1.15,2013-03-10 19:16:00,
2013-03-10 15:18:00,41.2,32.9,30.35,East,101,3.0,5.0,72,0.00,,,0.00,Wunderground v.1.15,2013-03-10 19:18:00,
2013-03-10 15:19:00,40.9,32.6,30.35,East,101,0.0,5.0,72,0.00,,,0.00,Wunderground v.1.15,2013-03-10 19:19:00,
2013-03-10 15:20:00,40.9,32.6,30.36,East,101,2.0,2.0,72,0.00,,,0.00,Wunderground v.1.15,2013-03-10 19:20:00,
2013-03-10 15:22:00,40.6,32.6,30.36,ESE,119,1.0,4.0,73,0.00,,,0.00,Wunderground v.1.15,2013-03-10 19:22:00,
2013-03-10 15:24:00,40.6,32.6,30.35,ESE,107,3.0,4.0,73,0.00,,,0.00,Wunderground v.1.15,2013-03-10 19:24:00,
2013-03-10 15:25:00,40.5,32.5,30.36,East,101,2.0,6.0,73,0.00,,,0.00,Wunderground v.1.15,2013-03-10 19:25:00,
2013-03-10 15:27:00,40.3,32.3,30.36,South,170,3.0,6.0,73,0.00,,,0.00,Wunderground v.1.15,2013-03-10 19:27:00,
2013-03-10 15:29:00,40.3,32.7,30.36,SSW,195,2.0,6.0,74,0.00,,,0.00,Wunderground v.1.15,2013-03-10 19:29:00,
2013-03-10 15:30:00,40.5,32.9,30.36,SE,136,5.0,6.0,74,0.00,,,0.00,Wunderground v.1.15,2013-03-10 19:30:00,
2013-03-10 15:31:00,40.5,32.5,30.36,SE,137,0.0,6.0,73,0.00,,,0.00,Wunderground v.1.15,2013-03-10 19:31:00,
2013-03-10 15:32:00,40.5,32.5,30.36,South,174,3.0,6.0,73,0.00,,,0.00,Wunderground v.1.15,2013-03-10 19:32:00,
2013-03-10 15:35:00,40.8,32.8,30.36,East,87,0.0,6.0,73,0.00,,,0.00,Wunderground v.1.15,2013-03-10 19:35:00,
2013-03-10 15:36:00,40.9,32.9,30.36,SE,126,2.0,6.0,73,0.00,,,0.00,Wunderground v.1.15,2013-03-10 19:36:00,
2013-03-10 15:37:00,40.9,32.9,30.36,SE,126,3.0,6.0,73,0.00,,,0.00,Wunderground v.1.15,2013-03-10 19:37:00,
2013-03-10 15:40:00,40.6,32.6,30.36,SSE,147,2.0,4.0,73,0.00,,,0.00,Wunderground v.1.15,2013-03-10 19:40:00,
2013-03-10 15:41:00,40.6,32.6,30.36,SSE,147,3.0,4.0,73,0.00,,,0.00,Wunderground v.1.15,2013-03-10 19:41:00,
2013-03-10 15:42:00,40.6,33.0,30.36,SSE,147,0.0,4.0,74,0.00,,,0.00,Wunderground v.1.15,2013-03-10 19:42:00,
2013-03-10 15:45:00,40.8,33.2,30.36,South,173,1.0,5.0,74,0.00,,,0.00,Wunderground v.1.15,2013-03-10 19:45:00,
2013-03-10 15:46:00,40.8,32.8,30.36,SSE,168,2.0,5.0,73,0.00,,,0.00,Wunderground v.1.15,2013-03-10 19:46:00,
2013-03-10 15:48:00,41.1,33.1,30.35,SSE,150,2.0,5.0,73,0.00,,,0.00,Wunderground v.1.15,2013-03-10 19:48:00,
2013-03-10 15:51:00,41.1,32.8,30.35,SE,128,2.0,6.0,72,0.00,,,0.00,Wunderground v.1.15,2013-03-10 19:51:00,
2013-03-10 15:52:00,41.1,32.8,30.35,SE,128,0.0,6.0,72,0.00,,,0.00,Wunderground v.1.15,2013-03-10 19:52:00,
2013-03-10 15:54:00,41.1,32.8,30.36,South,175,3.0,7.0,72,0.00,,,0.00,Wunderground v.1.15,2013-03-10 19:54:00,
2013-03-10 15:56:00,41.2,32.9,30.36,SSW,209,0.0,7.0,72,0.00,,,0.00,Wunderground v.1.15,2013-03-10 19:56:00,
2013-03-10 15:57:00,41.3,33.0,30.36,South,169,2.0,7.0,72,0.00,,,0.00,Wunderground v.1.15,2013-03-10 19:57:00,
2013-03-10 16:00:00,41.8,33.1,30.35,SE,140,2.0,6.0,71,0.00,,,0.00,Wunderground v.1.15,2013-03-10 20:00:00,
2013-03-10 16:01:00,41.8,33.1,30.35,SSE,147,3.0,6.0,71,0.00,,,0.00,Wunderground v.1.15,2013-03-10 20:01:00,
2013-03-10 16:02:00,41.8,33.1,30.35,SSE,148,3.0,6.0,71,0.00,,,0.00,Wunderground v.1.15,2013-03-10 20:02:00,
2013-03-10 16:05:00,41.2,32.5,30.35,East,79,3.0,7.0,71,0.00,,,0.00,Wunderground v.1.15,2013-03-10 20:05:00,
2013-03-10 16:07:00,41.1,32.4,30.35,East,90,0.0,7.0,71,0.00,,,0.00,Wunderground v.1.15,2013-03-10 20:07:00,
2013-03-10 16:08:00,41.1,33.1,30.35,ESE,117,4.0,7.0,73,0.00,,,0.00,Wunderground v.1.15,2013-03-10 20:08:00,
2013-03-10 16:10:00,41.3,33.0,30.35,SE,129,4.0,7.0,72,0.00,,,0.00,Wunderground v.1.15,2013-03-10 20:10:00,
2013-03-10 16:13:00,41.1,33.1,30.35,SE,127,5.0,7.0,73,0.00,,,0.00,Wunderground v.1.15,2013-03-10 20:13:00,
2013-03-10 16:14:00,41.1,33.1,30.35,SSE,166,2.0,7.0,73,0.00,,,0.00,Wunderground v.1.15,2013-03-10 20:14:00,
2013-03-10 16:16:00,41.1,33.1,30.35,ESE,108,3.0,7.0,73,0.00,,,0.00,Wunderground v.1.15,2013-03-10 20:16:00,
2013-03-10 16:18:00,41.1,33.1,30.35,ESE,115,0.0,7.0,73,0.00,,,0.00,Wunderground v.1.15,2013-03-10 20:18:00,
2013-03-10 16:19:00,41.2,33.2,30.35,SE,142,3.0,7.0,73,0.00,,,0.00,Wunderground v.1.15,2013-03-10 20:19:00,
2013-03-10 16:20:00,41.1,33.1,30.35,SE,132,1.0,5.0,73,0.00,,,0.00,Wunderground v.1.15,2013-03-10 20:20:00,
2013-03-10 16:22:00,41.1,33.1,30.35,SE,138,3.0,5.0,73,0.00,,,0.00,Wunderground v.1.15,2013-03-10 20:22:00,
2013-03-10 16:24:00,41.1,33.1,30.35,SSE,148,1.0,5.0,73,0.00,,,0.00,Wunderground v.1.15,2013-03-10 20:24:00,
2013-03-10 16:25:00,41.1,33.1,30.35,East,98,3.0,5.0,73,0.00,,,0.00,Wunderground v.1.15,2013-03-10 20:25:00,
2013-03-10 16:28:00,41.1,33.1,30.35,SE,146,1.0,6.0,73,0.00,,,0.00,Wunderground v.1.15,2013-03-10 20:28:00,
2013-03-10 16:29:00,41.1,33.1,30.35,SE,146,0.0,6.0,73,0.00,,,0.00,Wunderground v.1.15,2013-03-10 20:29:00,
2013-03-10 16:30:00,41.1,33.1,30.35,ESE,110,7.0,7.0,73,0.00,,,0.00,Wunderground v.1.15,2013-03-10 20:30:00,
2013-03-10 16:34:00,40.3,32.3,30.35,SE,125,2.0,9.0,73,0.00,,,0.00,Wunderground v.1.15,2013-03-10 20:34:00,
2013-03-10 16:37:00,40.5,32.9,30.35,SSE,149,3.0,9.0,74,0.00,,,0.00,Wunderground v.1.15,2013-03-10 20:37:00,
2013-03-10 16:39:00,40.6,33.0,30.35,SSE,148,3.0,9.0,74,0.00,,,0.00,Wunderground v.1.15,2013-03-10 20:39:00,
2013-03-10 16:42:00,40.2,32.2,30.35,East,89,0.0,7.0,73,0.00,,,0.00,Wunderground v.1.15,2013-03-10 20:42:00,
2013-03-10 16:44:00,40.2,32.6,30.34,SSE,153,1.0,7.0,74,0.00,,,0.00,Wunderground v.1.15,2013-03-10 20:44:00,
2013-03-10 16:47:00,40.2,32.6,30.34,SSE,152,4.0,7.0,74,0.00,,,0.00,Wunderground v.1.15,2013-03-10 20:47:00,
2013-03-10 16:48:00,40.2,32.6,30.34,SSE,152,0.0,7.0,74,0.00,,,0.00,Wunderground v.1.15,2013-03-10 20:48:00,
2013-03-10 16:49:00,40.5,32.9,30.35,East,82,2.0,7.0,74,0.00,,,0.00,Wunderground v.1.15,2013-03-10 20:49:00,
2013-03-10 16:53:00,40.6,32.6,30.34,ESE,105,2.0,7.0,73,0.00,,,0.00,Wunderground v.1.15,2013-03-10 20:53:00,
2013-03-10 16:54:00,40.2,32.2,30.34,East,86,2.0,7.0,73,0.00,,,0.00,Wunderground v.1.15,2013-03-10 20:54:00,
2013-03-10 16:58:00,40.2,32.9,30.35,SE,142,4.0,7.0,75,0.00,,,0.00,Wunderground v.1.15,2013-03-10 20:58:00,
2013-03-10 16:59:00,40.2,32.6,30.35,ESE,112,3.0,9.0,74,0.00,,,0.00,Wunderground v.1.15,2013-03-10 20:59:00,
2013-03-10 17:00:00,40.2,32.6,30.35,ESE,123,3.0,9.0,74,0.00,,,0.00,Wunderground v.1.15,2013-03-10 21:00:00,
2013-03-10 17:04:00,39.9,32.3,30.35,East,98,3.0,3.0,74,0.00,,,0.00,Wunderground v.1.15,2013-03-10 21:04:00,
2013-03-10 17:05:00,39.8,32.2,30.35,East,100,2.0,4.0,74,0.00,,,0.00,Wunderground v.1.15,2013-03-10 21:05:00,
2013-03-10 17:09:00,40.1,33.1,30.35,ESE,114,0.0,3.0,76,0.00,,,0.00,Wunderground v.1.15,2013-03-10 21:09:00,
2013-03-10 17:10:00,40.1,32.8,30.35,SSE,149,1.0,3.0,75,0.00,,,0.00,Wunderground v.1.15,2013-03-10 21:10:00,
2013-03-10 17:15:00,40.3,33.0,30.35,SE,146,2.0,4.0,75,0.00,,,0.00,Wunderground v.1.15,2013-03-10 21:15:00,
2013-03-10 17:16:00,40.3,33.0,30.34,ESE,119,4.0,4.0,75,0.00,,,0.00,Wunderground v.1.15,2013-03-10 21:16:00,
2013-03-10 17:20:00,40.1,32.5,30.35,SE,126,2.0,3.0,74,0.00,,,0.00,Wunderground v.1.15,2013-03-10 21:20:00,
2013-03-10 17:21:00,40.1,32.5,30.35,ESE,118,4.0,4.0,74,0.00,,,0.00,Wunderground v.1.15,2013-03-10 21:21:00,
2013-03-10 17:22:00,39.9,32.3,30.35,East,96,6.0,6.0,74,0.00,,,0.00,Wunderground v.1.15,2013-03-10 21:22:00,
2013-03-10 17:26:00,39.8,32.8,30.35,SSE,163,3.0,6.0,76,0.00,,,0.00,Wunderground v.1.15,2013-03-10 21:26:00,
2013-03-10 17:27:00,39.8,32.5,30.35,SSE,163,0.0,6.0,75,0.00,,,0.00,Wunderground v.1.15,2013-03-10 21:27:00,
2013-03-10 17:32:00,39.6,32.3,30.34,ESE,110,1.0,5.0,75,0.00,,,0.00,Wunderground v.1.15,2013-03-10 21:32:00,
2013-03-10 17:33:00,39.6,32.7,30.34,ESE,110,1.0,5.0,76,0.00,,,0.00,Wunderground v.1.15,2013-03-10 21:33:00,
2013-03-10 17:37:00,39.3,32.4,30.34,East,86,4.0,7.0,76,0.00,,,0.00,Wunderground v.1.15,2013-03-10 21:37:00,
2013-03-10 17:38:00,39.3,32.4,30.34,ESE,117,2.0,7.0,76,0.00,,,0.00,Wunderground v.1.15,2013-03-10 21:38:00,
2013-03-10 17:39:00,39.3,32.4,30.34,SE,128,2.0,3.0,76,0.00,,,0.00,Wunderground v.1.15,2013-03-10 21:39:00,
2013-03-10 17:42:00,39.3,32.7,30.34,SSE,168,2.0,4.0,77,0.00,,,0.00,Wunderground v.1.15,2013-03-10 21:42:00,
2013-03-10 17:44:00,39.5,32.9,30.34,SE,128,0.0,4.0,77,0.00,,,0.00,Wunderground v.1.15,2013-03-10 21:44:00,
2013-03-10 17:48:00,39.3,32.4,30.34,ESE,115,4.0,5.0,76,0.00,,,0.00,Wunderground v.1.15,2013-03-10 21:48:00,
2013-03-10 17:49:00,39.3,32.4,30.34,South,169,4.0,4.0,76,0.00,,,0.00,Wunderground v.1.15,2013-03-10 21:49:00,
2013-03-10 17:53:00,39.2,32.6,30.34,SE,140,4.0,6.0,77,0.00,,,0.00,Wunderground v.1.15,2013-03-10 21:53:00,
2013-03-10 17:54:00,39.1,32.5,30.34,ESE,123,3.0,6.0,77,0.00,,,0.00,Wunderground v.1.15,2013-03-10 21:54:00,
2013-03-10 17:58:00,39.1,32.8,30.34,SE,136,0.0,6.0,78,0.00,,,0.00,Wunderground v.1.15,2013-03-10 21:58:00,
2013-03-10 17:59:00,39.1,32.8,30.34,SE,136,0.0,3.0,78,0.00,,,0.00,Wunderground v.1.15,2013-03-10 21:59:00,
2013-03-10 18:03:00,39.2,32.9,30.34,East,88,0.0,3.0,78,0.00,,,0.00,Wunderground v.1.15,2013-03-10 22:03:00,
2013-03-10 18:05:00,39.2,32.9,30.34,East,88,0.0,3.0,78,0.00,,,0.00,Wunderground v.1.15,2013-03-10 22:05:00,
2013-03-10 18:06:00,39.2,32.9,30.34,South,189,2.0,3.0,78,0.00,,,0.00,Wunderground v.1.15,2013-03-10 22:06:00,
2013-03-10 18:09:00,39.2,32.9,30.34,ESE,123,1.0,4.0,78,0.00,,,0.00,Wunderground v.1.15,2013-03-10 22:09:00,
2013-03-10 18:10:00,39.2,32.9,30.34,ESE,123,1.0,2.0,78,0.00,,,0.00,Wunderground v.1.15,2013-03-10 22:10:00,
2013-03-10 18:11:00,39.1,32.5,30.34,East,100,2.0,3.0,77,0.00,,,0.00,Wunderground v.1.15,2013-03-10 22:11:00,
2013-03-10 18:14:00,39.1,32.8,30.34,East,100,2.0,3.0,78,0.00,,,0.00,Wunderground v.1.15,2013-03-10 22:14:00,
2013-03-10 18:15:00,38.9,32.6,30.34,East,100,1.0,3.0,78,0.00,,,0.00,Wunderground v.1.15,2013-03-10 22:15:00,
2013-03-10 18:16:00,39.1,32.8,30.34,SE,131,4.0,6.0,78,0.00,,,0.00,Wunderground v.1.15,2013-03-10 22:16:00,
2013-03-10 18:19:00,38.9,32.6,30.34,SE,136,3.0,3.0,78,0.00,,,0.00,Wunderground v.1.15,2013-03-10 22:19:00,
2013-03-10 18:21:00,38.9,32.6,30.34,SSE,149,4.0,5.0,78,0.00,,,0.00,Wunderground v.1.15,2013-03-10 22:21:00,
2013-03-10 18:22:00,38.9,32.6,30.34,ESE,105,3.0,5.0,78,0.00,,,0.00,Wunderground v.1.15,2013-03-10 22:22:00,
2013-03-10 18:25:00,38.9,32.6,30.34,SE,131,1.0,5.0,78,0.00,,,0.00,Wunderground v.1.15,2013-03-10 22:25:00,
2013-03-10 18:26:00,38.9,32.6,30.34,ESE,120,2.0,5.0,78,0.00,,,0.00,Wunderground v.1.15,2013-03-10 22:26:00,
2013-03-10 18:27:00,38.9,32.6,30.34,East,96,3.0,5.0,78,0.00,,,0.00,Wunderground v.1.15,2013-03-10 22:27:00,
2013-03-10 18:30:00,38.9,32.6,30.34,ESE,115,2.0,4.0,78,0.00,,,0.00,Wunderground v.1.15,2013-03-10 22:30:00,
2013-03-10 18:32:00,38.8,32.5,30.34,East,101,4.0,6.0,78,0.00,,,0.00,Wunderground v.1.15,2013-03-10 22:32:00,
2013-03-10 18:33:00,38.6,32.3,30.34,ESE,114,2.0,6.0,78,0.00,,,0.00,Wunderground v.1.15,2013-03-10 22:33:00,
2013-03-10 18:36:00,38.6,32.6,30.34,South,176,2.0,6.0,79,0.00,,,0.00,Wunderground v.1.15,2013-03-10 22:36:00,
2013-03-10 18:37:00,38.6,32.6,30.34,SE,142,1.0,6.0,79,0.00,,,0.00,Wunderground v.1.15,2013-03-10 22:37:00,
2013-03-10 18:39:00,38.6,32.6,30.34,SE,142,1.0,6.0,79,0.00,,,0.00,Wunderground v.1.15,2013-03-10 22:39:00,
2013-03-10 18:41:00,38.6,32.6,30.34,SE,129,1.0,4.0,79,0.00,,,0.00,Wunderground v.1.15,2013-03-10 22:41:00,
2013-03-10 18:42:00,38.6,32.6,30.34,SE,137,2.0,6.0,79,0.00,,,0.00,Wunderground v.1.15,2013-03-10 22:42:00,
2013-03-10 18:44:00,38.6,32.6,30.34,SSE,153,2.0,6.0,79,0.00,,,0.00,Wunderground v.1.15,2013-03-10 22:44:00,
2013-03-10 18:46:00,38.6,32.6,30.34,SE,132,5.0,6.0,79,0.00,,,0.00,Wunderground v.1.15,2013-03-10 22:46:00,
2013-03-10 18:47:00,38.6,32.6,30.34,ESE,102,3.0,6.0,79,0.00,,,0.00,Wunderground v.1.15,2013-03-10 22:47:00,
2013-03-10 18:49:00,38.6,32.6,30.34,SE,129,2.0,6.0,79,0.00,,,0.00,Wunderground v.1.15,2013-03-10 22:49:00,
2013-03-10 18:52:00,38.6,32.6,30.34,SSE,149,3.0,6.0,79,0.00,,,0.00,Wunderground v.1.15,2013-03-10 22:52:00,
2013-03-10 18:54:00,38.6,32.6,30.34,SSE,148,0.0,6.0,79,0.00,,,0.00,Wunderground v.1.15,2013-03-10 22:54:00,
2013-03-10 18:55:00,38.6,33.0,30.34,SSE,148,0.0,6.0,80,0.00,,,0.00,Wunderground v.1.15,2013-03-10 22:55:00,
2013-03-10 18:57:00,38.6,33.0,30.34,SSE,163,2.0,6.0,80,0.00,,,0.00,Wunderground v.1.15,2013-03-10 22:57:00,
2013-03-10 18:59:00,38.6,33.0,30.34,SE,144,4.0,6.0,80,0.00,,,0.00,Wunderground v.1.15,2013-03-10 22:59:00,
2013-03-10 19:00:00,38.6,33.0,30.34,SE,144,0.0,3.0,80,0.00,,,0.00,Wunderground v.1.15,2013-03-10 23:00:00,
2013-03-10 19:02:00,38.6,33.0,30.34,South,170,0.0,6.0,80,0.00,,,0.00,Wunderground v.1.15,2013-03-10 23:02:00,
2013-03-10 19:03:00,38.6,33.0,30.34,SSE,153,1.0,6.0,80,0.00,,,0.00,Wunderground v.1.15,2013-03-10 23:03:00,
2013-03-10 19:04:00,38.6,33.0,30.34,SSE,153,3.0,6.0,80,0.00,,,0.00,Wunderground v.1.15,2013-03-10 23:04:00,
2013-03-10 19:07:00,38.6,33.0,30.35,SSE,165,0.0,6.0,80,0.00,,,0.00,Wunderground v.1.15,2013-03-10 23:07:00,
2013-03-10 19:08:00,38.6,33.0,30.35,SSE,165,2.0,6.0,80,0.00,,,0.00,Wunderground v.1.15,2013-03-10 23:08:00,
2013-03-10 19:09:00,38.6,33.0,30.35,SSE,165,2.0,6.0,80,0.00,,,0.00,Wunderground v.1.15,2013-03-10 23:09:00,
2013-03-10 19:12:00,38.6,33.0,30.35,SE,144,0.0,4.0,80,0.00,,,0.00,Wunderground v.1.15,2013-03-10 23:12:00,
2013-03-10 19:13:00,38.5,32.9,30.35,SE,144,1.0,4.0,80,0.00,,,0.00,Wunderground v.1.15,2013-03-10 23:13:00,
2013-03-10 19:14:00,38.5,32.9,30.34,SE,144,0.0,4.0,80,0.00,,,0.00,Wunderground v.1.15,2013-03-10 23:14:00,
2013-03-10 19:18:00,38.5,32.9,30.35,SE,144,1.0,4.0,80,0.00,,,0.00,Wunderground v.1.15,2013-03-10 23:18:00,
2013-03-10 19:19:00,38.5,32.9,30.35,SE,144,0.0,4.0,80,0.00,,,0.00,Wunderground v.1.15,2013-03-10 23:19:00,
2013-03-10 19:20:00,38.5,32.9,30.35,SE,144,0.0,1.0,80,0.00,,,0.00,Wunderground v.1.15,2013-03-10 23:20:00,
2013-03-10 19:21:00,38.5,32.9,30.35,SE,144,0.0,1.0,80,0.00,,,0.00,Wunderground v.1.15,2013-03-10 23:21:00,
2013-03-10 19:23:00,38.5,32.9,30.35,SE,144,0.0,1.0,80,0.00,,,0.00,Wunderground v.1.15,2013-03-10 23:23:00,
2013-03-10 19:24:00,38.5,33.2,30.35,SE,144,0.0,1.0,81,0.00,,,0.00,Wunderground v.1.15,2013-03-10 23:24:00,
2013-03-10 19:25:00,38.5,33.2,30.35,SE,144,0.0,1.0,81,0.00,,,0.00,Wunderground v.1.15,2013-03-10 23:25:00,
2013-03-10 19:27:00,38.5,33.2,30.35,SE,146,3.0,3.0,81,0.00,,,0.00,Wunderground v.1.15,2013-03-10 23:27:00,
2013-03-10 19:28:00,38.5,33.2,30.35,South,169,1.0,6.0,81,0.00,,,0.00,Wunderground v.1.15,2013-03-10 23:28:00,
2013-03-10 19:29:00,38.5,33.2,30.35,South,169,0.0,6.0,81,0.00,,,0.00,Wunderground v.1.15,2013-03-10 23:29:00,
2013-03-10 19:30:00,38.5,33.2,30.35,South,169,1.0,1.0,81,0.00,,,0.00,Wunderground v.1.15,2013-03-10 23:30:00,
2013-03-10 19:31:00,38.5,33.2,30.35,South,169,3.0,4.0,81,0.00,,,0.00,Wunderground v.1.15,2013-03-10 23:31:00,
2013-03-10 19:35:00,38.5,33.2,30.35,South,169,0.0,4.0,81,0.00,,,0.00,Wunderground v.1.15,2013-03-10 23:35:00,
2013-03-10 19:36:00,38.5,33.2,30.35,South,169,0.0,4.0,81,0.00,,,0.00,Wunderground v.1.15,2013-03-10 23:36:00,
2013-03-10 19:40:00,38.3,33.0,30.35,South,169,0.0,0.0,81,0.00,,,0.00,Wunderground v.1.15,2013-03-10 23:40:00,
2013-03-10 19:41:00,38.5,33.2,30.35,South,169,1.0,1.0,81,0.00,,,0.00,Wunderground v.1.15,2013-03-10 23:41:00,
2013-03-10 19:42:00,38.5,33.2,30.35,South,169,2.0,2.0,81,0.00,,,0.00,Wunderground v.1.15,2013-03-10 23:42:00,
2013-03-10 19:46:00,38.5,33.2,30.35,South,169,0.0,3.0,81,0.00,,,0.00,Wunderground v.1.15,2013-03-10 23:46:00,
2013-03-10 19:47:00,38.5,33.2,30.34,South,169,0.0,3.0,81,0.00,,,0.00,Wunderground v.1.15,2013-03-10 23:47:00,
2013-03-10 19:51:00,38.3,33.0,30.34,South,169,1.0,1.0,81,0.00,,,0.00,Wunderground v.1.15,2013-03-10 23:51:00,
2013-03-10 19:52:00,38.2,32.9,30.34,South,169,0.0,1.0,81,0.00,,,0.00,Wunderground v.1.15,2013-03-10 23:52:00,
2013-03-10 19:53:00,38.2,32.9,30.34,South,169,2.0,3.0,81,0.00,,,0.00,Wunderground v.1.15,2013-03-10 23:53:00,
2013-03-10 19:57:00,38.2,33.2,30.34,South,169,1.0,3.0,82,0.00,,,0.00,Wunderground v.1.15,2013-03-10 23:57:00,
2013-03-10 19:58:00,38.2,33.2,30.34,South,169,0.0,3.0,82,0.00,,,0.00,Wunderground v.1.15,2013-03-10 23:58:00,
2013-03-10 20:02:00,38.2,33.2,30.34,South,169,0.0,2.0,82,0.00,,,0.00,Wunderground v.1.15,2013-03-11 00:02:00,
2013-03-10 20:03:00,38.2,33.2,30.34,South,169,0.0,2.0,82,0.00,,,0.00,Wunderground v.1.15,2013-03-11 00:03:00,
2013-03-10 20:04:00,38.2,33.2,30.34,South,169,2.0,2.0,82,0.00,,,0.00,Wunderground v.1.15,2013-03-11 00:04:00,
2013-03-10 20:07:00,38.2,33.2,30.34,South,169,0.0,2.0,82,0.00,,,0.00,Wunderground v.1.15,2013-03-11 00:07:00,
2013-03-10 20:09:00,38.2,33.2,30.34,South,169,0.0,3.0,82,0.00,,,0.00,Wunderground v.1.15,2013-03-11 00:09:00,
2013-03-10 20:12:00,38.2,33.2,30.34,South,169,0.0,2.0,82,0.00,,,0.00,Wunderground v.1.15,2013-03-11 00:12:00,
2013-03-10 20:13:00,38.2,33.2,30.34,South,169,0.0,2.0,82,0.00,,,0.00,Wunderground v.1.15,2013-03-11 00:13:00,
2013-03-10 20:14:00,38.2,33.2,30.34,South,169,0.0,2.0,82,0.00,,,0.00,Wunderground v.1.15,2013-03-11 00:14:00,
2013-03-10 20:17:00,38.2,33.2,30.34,South,169,1.0,2.0,82,0.00,,,0.00,Wunderground v.1.15,2013-03-11 00:17:00,
2013-03-10 20:18:00,38.2,33.2,30.34,South,169,2.0,2.0,82,0.00,,,0.00,Wunderground v.1.15,2013-03-11 00:18:00,
2013-03-10 20:19:00,38.2,33.2,30.34,SSE,159,0.0,4.0,82,0.00,,,0.00,Wunderground v.1.15,2013-03-11 00:19:00,
2013-03-10 20:23:00,38.2,33.5,30.34,SSE,156,2.0,5.0,83,0.00,,,0.00,Wunderground v.1.15,2013-03-11 00:23:00,
2013-03-10 20:24:00,38.2,33.5,30.34,SSE,156,1.0,5.0,83,0.00,,,0.00,Wunderground v.1.15,2013-03-11 00:24:00,
2013-03-10 20:29:00,38.3,33.6,30.34,SSE,149,0.0,5.0,83,0.00,,,0.00,Wunderground v.1.15,2013-03-11 00:29:00,
2013-03-10 20:30:00,38.3,33.6,30.34,SSE,149,2.0,3.0,83,0.00,,,0.00,Wunderground v.1.15,2013-03-11 00:30:00,
2013-03-10 20:34:00,38.3,33.6,30.34,SSE,149,0.0,3.0,83,0.00,,,0.00,Wunderground v.1.15,2013-03-11 00:34:00,
2013-03-10 20:35:00,38.3,33.6,30.34,SSE,149,1.0,3.0,83,0.00,,,0.00,Wunderground v.1.15,2013-03-11 00:35:00,
2013-03-10 20:36:00,38.3,33.6,30.34,SSE,149,0.0,3.0,83,0.00,,,0.00,Wunderground v.1.15,2013-03-11 00:36:00,
2013-03-10 20:39:00,38.3,33.6,30.34,SSE,149,0.0,3.0,83,0.00,,,0.00,Wunderground v.1.15,2013-03-11 00:39:00,
2013-03-10 20:40:00,38.3,33.6,30.34,SSE,149,0.0,0.0,83,0.00,,,0.00,Wunderground v.1.15,2013-03-11 00:40:00,
2013-03-10 20:41:00,38.3,33.6,30.34,SSE,149,0.0,0.0,83,0.00,,,0.00,Wunderground v.1.15,2013-03-11 00:41:00,
2013-03-10 20:44:00,38.3,33.6,30.34,SSE,149,0.0,1.0,83,0.00,,,0.00,Wunderground v.1.15,2013-03-11 00:44:00,
2013-03-10 20:45:00,38.3,33.6,30.34,SSE,149,0.0,1.0,83,0.00,,,0.00,Wunderground v.1.15,2013-03-11 00:45:00,
2013-03-10 20:46:00,38.2,33.5,30.34,SSE,149,0.0,1.0,83,0.00,,,0.00,Wunderground v.1.15,2013-03-11 00:46:00,
2013-03-10 20:50:00,38.3,33.6,30.34,SSE,149,0.0,0.0,83,0.00,,,0.00,Wunderground v.1.15,2013-03-11 00:50:00,
2013-03-10 20:52:00,38.3,33.6,30.34,SSE,149,0.0,0.0,83,0.00,,,0.00,Wunderground v.1.15,2013-03-11 00:52:00,
2013-03-10 20:55:00,38.2,33.8,30.34,SSE,149,0.0,2.0,84,0.00,,,0.00,Wunderground v.1.15,2013-03-11 00:55:00,
2013-03-10 20:56:00,38.3,33.9,30.34,SSE,149,1.0,2.0,84,0.00,,,0.00,Wunderground v.1.15,2013-03-11 00:56:00,
2013-03-10 20:57:00,38.3,33.9,30.34,SSE,149,0.0,2.0,84,0.00,,,0.00,Wunderground v.1.15,2013-03-11 00:57:00,
2013-03-10 21:00:00,38.3,33.9,30.34,SSE,149,0.0,0.0,84,0.00,,,0.00,Wunderground v.1.15,2013-03-11 01:00:00,
2013-03-10 21:01:00,38.3,33.9,30.34,SSE,149,0.0,0.0,84,0.00,,,0.00,Wunderground v.1.15,2013-03-11 01:01:00,
2013-03-10 21:02:00,38.3,33.9,30.34,SSE,149,0.0,0.0,84,0.00,,,0.00,Wunderground v.1.15,2013-03-11 01:02:00,
2013-03-10 21:04:00,38.3,33.9,30.34,SSE,149,0.0,0.0,84,0.00,,,0.00,Wunderground v.1.15,2013-03-11 01:04:00,
2013-03-10 21:05:00,38.3,33.9,30.34,SSE,149,0.0,1.0,84,0.00,,,0.00,Wunderground v.1.15,2013-03-11 01:05:00,
2013-03-10 21:06:00,38.2,33.8,30.34,SSE,149,0.0,1.0,84,0.00,,,0.00,Wunderground v.1.15,2013-03-11 01:06:00,
2013-03-10 21:07:00,38.2,33.8,30.34,SSE,149,0.0,1.0,84,0.00,,,0.00,Wunderground v.1.15,2013-03-11 01:07:00,
2013-03-10 21:09:00,38.2,33.8,30.35,SSE,149,0.0,1.0,84,0.00,,,0.00,Wunderground v.1.15,2013-03-11 01:09:00,
2013-03-10 21:10:00,38.2,33.8,30.35,SSE,149,0.0,3.0,84,0.00,,,0.00,Wunderground v.1.15,2013-03-11 01:10:00,
2013-03-10 21:11:00,38.2,33.8,30.35,SSE,149,0.0,3.0,84,0.00,,,0.00,Wunderground v.1.15,2013-03-11 01:11:00,
2013-03-10 21:12:00,38.2,33.8,30.35,SSE,149,0.0,3.0,84,0.00,,,0.00,Wunderground v.1.15,2013-03-11 01:12:00,
2013-03-10 21:14:00,38.2,33.8,30.35,SSE,149,0.0,3.0,84,0.00,,,0.00,Wunderground v.1.15,2013-03-11 01:14:00,
2013-03-10 21:16:00,38.2,33.8,30.35,SSE,149,0.0,3.0,84,0.00,,,0.00,Wunderground v.1.15,2013-03-11 01:16:00,
2013-03-10 21:17:00,38.2,33.8,30.35,SSE,149,0.0,3.0,84,0.00,,,0.00,Wunderground v.1.15,2013-03-11 01:17:00,
2013-03-10 21:19:00,38.2,33.8,30.35,SSE,149,0.0,3.0,84,0.00,,,0.00,Wunderground v.1.15,2013-03-11 01:19:00,
2013-03-10 21:21:00,38.0,33.6,30.35,SSE,149,0.0,0.0,84,0.00,,,0.00,Wunderground v.1.15,2013-03-11 01:21:00,
2013-03-10 21:22:00,38.0,33.6,30.35,SSE,149,0.0,0.0,84,0.00,,,0.00,Wunderground v.1.15,2013-03-11 01:22:00,
2013-03-10 21:23:00,38.0,33.6,30.35,SSE,149,0.0,0.0,84,0.00,,,0.00,Wunderground v.1.15,2013-03-11 01:23:00,
2013-03-10 21:25:00,37.9,33.5,30.35,SSE,149,0.0,0.0,84,0.00,,,0.00,Wunderground v.1.15,2013-03-11 01:25:00,
2013-03-10 21:27:00,37.8,33.4,30.34,SSE,149,0.0,0.0,84,0.00,,,0.00,Wunderground v.1.15,2013-03-11 01:27:00,
2013-03-10 21:28:00,37.8,33.4,30.34,SSE,149,0.0,0.0,84,0.00,,,0.00,Wunderground v.1.15,2013-03-11 01:28:00,
2013-03-10 21:30:00,37.6,33.2,30.34,SSE,149,0.0,0.0,84,0.00,,,0.00,Wunderground v.1.15,2013-03-11 01:30:00,
2013-03-10 21:32:00,37.6,33.5,30.34,SSE,149,0.0,0.0,85,0.00,,,0.00,Wunderground v.1.15,2013-03-11 01:32:00,
2013-03-10 22:58:00,38.9,35.1,30.33,South,169,1.0,1.0,86,0.00,,,0.00,Wunderground v.1.15,2013-03-11 02:58:00,
2013-03-10 23:22:00,38.8,35.0,30.32,South,169,0.0,0.0,86,0.00,,,0.00,Wunderground v.1.15,2013-03-11 03:22:00,
2013-03-10 23:27:00,38.8,35.0,30.32,South,169,0.0,1.0,86,0.00,,,0.00,Wunderground v.1.15,2013-03-11 03:27:00,
2013-03-10 23:28:00,38.8,35.0,30.33,South,169,0.0,1.0,86,0.00,,,0.00,Wunderground v.1.15,2013-03-11 03:28:00,